CHH424 ZUCK-LFBO

Flight info

Callsign CHH424
Flight time 12h 11m
Altitude 36000
Route URGEG6Y URGEG W80 WFX W179 OMBON Y1 SADAN W186 KAMUD/K0913F360 L141 TISIB L143 POGON/N0491F360 A477 BABUM A909 RODAR N644 ROLIN UN644 SIN UW90 DEVMU UL852 NEGEM DCT DOLAP DCT VEBAR DCT ELTIB DCT BAXON DCT LUTOR DCT GEKBA DCT VAMTU DCT PADKO DCT FJR DCT AFRIC
Aircraft B789/H-SDE1E2E3FGHIJ2J3J4J5M1RWXY/LB1D1

Departure

Time 2026-04-24 15:19
Airport Chongqing Jiangbei International Airport (ZUCK)

Arrival

Time 2026-04-25 03:30
Airport Toulouse-Blagnac Airport (LFBO)
Time Latitude Longitude Altitude Speed Heading
2026-04-24 15:06 29.71603 106.65498 1380 ft 0 kts 119°
2026-04-24 15:08 29.71609 106.65486 1380 ft 2 kts 119°
2026-04-24 15:08 29.71616 106.65472 1380 ft 2 kts 119°
2026-04-24 15:09 29.71621 106.65462 1380 ft 2 kts 115°
2026-04-24 15:09 29.71622 106.65445 1380 ft 2 kts 63°
2026-04-24 15:09 29.71615 106.65435 1380 ft 0 kts 34°
2026-04-24 15:09 29.71612 106.65433 1380 ft 0 kts 35°
2026-04-24 15:13 29.71617 106.65437 1380 ft 2 kts 33°
2026-04-24 15:13 29.71636 106.65450 1380 ft 6 kts 30°
2026-04-24 15:13 29.71704 106.65483 1380 ft 9 kts 18°
2026-04-24 15:14 29.71777 106.65507 1380 ft 14 kts 15°
2026-04-24 15:14 29.71903 106.65550 1380 ft 21 kts 17°
2026-04-24 15:14 29.72038 106.65600 1380 ft 20 kts 32°
2026-04-24 15:14 29.72046 106.65773 1380 ft 29 kts 108°
2026-04-24 15:15 29.71999 106.65981 1380 ft 21 kts 77°
2026-04-24 15:15 29.72159 106.66080 1380 ft 35 kts 16°
2026-04-24 15:15 29.72422 106.66172 1380 ft 35 kts 18°
2026-04-24 15:15 29.72647 106.66251 1380 ft 36 kts 17°
2026-04-24 15:16 29.72884 106.66338 1380 ft 33 kts 17°
2026-04-24 15:16 29.73119 106.66416 1380 ft 37 kts 15°
2026-04-24 15:16 29.73409 106.66519 1380 ft 48 kts 17°
2026-04-24 15:16 29.73672 106.66608 1380 ft 31 kts 17°
2026-04-24 15:17 29.73901 106.66690 1380 ft 37 kts 17°
2026-04-24 15:17 29.74176 106.66787 1380 ft 44 kts 17°
2026-04-24 15:17 29.74432 106.66875 1380 ft 28 kts 17°
2026-04-24 15:17 29.74613 106.66938 1380 ft 26 kts 17°
2026-04-24 15:18 29.74750 106.67028 1380 ft 22 kts 81°
2026-04-24 15:18 29.74715 106.67197 1380 ft 17 kts 109°
2026-04-24 15:18 29.74597 106.67238 1380 ft 27 kts 197°
2026-04-24 15:18 29.74310 106.67138 1380 ft 61 kts 196°
2026-04-24 15:19 29.73760 106.66950 1380 ft 108 kts 197°
2026-04-24 15:19 29.72874 106.66643 1380 ft 155 kts 197°
2026-04-24 15:19 29.71719 106.66229 1439 ft 187 kts 198°
2026-04-24 15:19 29.70514 106.65812 2173 ft 173 kts 190°
2026-04-24 15:20 29.69280 106.65794 2542 ft 186 kts 176°
2026-04-24 15:20 29.67957 106.65890 2963 ft 198 kts 178°
2026-04-24 15:20 29.66540 106.65891 3356 ft 210 kts 181°
2026-04-24 15:20 29.65053 106.65842 3715 ft 221 kts 182°
2026-04-24 15:21 29.63481 106.65785 4118 ft 229 kts 182°
2026-04-24 15:21 29.61873 106.65728 4583 ft 237 kts 182°
2026-04-24 15:21 29.60215 106.65681 5345 ft 241 kts 178°
2026-04-24 15:21 29.58582 106.66063 6043 ft 248 kts 158°
2026-04-24 15:22 29.57127 106.67143 6768 ft 253 kts 135°
2026-04-24 15:22 29.56124 106.68776 7511 ft 257 kts 114°
2026-04-24 15:22 29.55635 106.70747 8268 ft 259 kts 102°
2026-04-24 15:23 29.54898 106.74802 9747 ft 265 kts 103°
2026-04-24 15:23 29.54097 106.78949 11210 ft 270 kts 103°
2026-04-24 15:23 29.53686 106.81061 11936 ft 272 kts 104°
2026-04-24 15:24 29.52811 106.87555 13918 ft 285 kts 85°
2026-04-24 15:25 29.54112 106.91864 15150 ft 295 kts 56°
2026-04-24 15:25 29.57168 106.95042 16176 ft 308 kts 25°
2026-04-24 15:26 29.63692 106.97287 16955 ft 348 kts 14°
2026-04-24 15:27 29.71022 106.99806 17699 ft 384 kts 15°
2026-04-24 15:27 29.78793 107.02519 19119 ft 393 kts 14°
2026-04-24 15:28 29.89449 107.01787 20872 ft 393 kts 332°
2026-04-24 15:29 29.93895 106.98286 21726 ft 391 kts 315°
2026-04-24 15:30 29.99940 106.91922 22999 ft 397 kts 314°
2026-04-24 15:31 30.08171 106.83255 24547 ft 407 kts 314°
2026-04-24 15:32 30.16584 106.74387 25929 ft 415 kts 314°
2026-04-24 15:33 30.25159 106.65329 27160 ft 421 kts 314°
2026-04-24 15:33 30.31641 106.58466 27997 ft 425 kts 314°
2026-04-24 15:34 30.36010 106.53834 28522 ft 428 kts 314°
2026-04-24 15:35 30.42610 106.46825 29245 ft 432 kts 314°
2026-04-24 15:35 30.47049 106.42104 29677 ft 435 kts 314°
2026-04-24 15:35 30.49256 106.39754 29904 ft 436 kts 314°
2026-04-24 15:36 30.51504 106.37361 30123 ft 436 kts 314°
2026-04-24 15:36 30.55592 106.32413 30468 ft 433 kts 301°
2026-04-24 15:36 30.57122 106.29426 30596 ft 431 kts 292°
2026-04-24 15:37 30.58190 106.26187 30740 ft 429 kts 283°
2026-04-24 15:37 30.58763 106.22806 30925 ft 427 kts 273°
2026-04-24 15:37 30.58837 106.19384 31127 ft 425 kts 264°
2026-04-24 15:37 30.58558 106.15958 31357 ft 423 kts 262°
2026-04-24 15:38 30.58237 106.12613 31574 ft 423 kts 262°
2026-04-24 15:38 30.57900 106.09208 31748 ft 423 kts 262°
2026-04-24 15:38 30.57561 106.05824 31885 ft 424 kts 262°
2026-04-24 15:38 30.57218 106.02431 32009 ft 425 kts 262°
2026-04-24 15:39 30.56870 105.99024 32130 ft 426 kts 262°
2026-04-24 15:39 30.56521 105.95635 32240 ft 427 kts 262°
2026-04-24 15:39 30.56170 105.92237 32357 ft 428 kts 262°
2026-04-24 15:39 30.55812 105.88787 32481 ft 428 kts 262°
2026-04-24 15:40 30.55455 105.85355 32608 ft 429 kts 262°
2026-04-24 15:40 30.55096 105.81924 32720 ft 429 kts 262°
2026-04-24 15:40 30.54739 105.78511 32821 ft 430 kts 262°
2026-04-24 15:40 30.54378 105.75080 32926 ft 430 kts 262°
2026-04-24 15:41 30.53653 105.68221 33102 ft 432 kts 262°
2026-04-24 15:41 30.52914 105.61276 33243 ft 433 kts 262°
2026-04-24 15:42 30.52176 105.54367 33397 ft 434 kts 262°
2026-04-24 15:42 30.51432 105.47410 33547 ft 434 kts 262°
2026-04-24 15:43 30.50687 105.40488 33645 ft 435 kts 262°
2026-04-24 15:43 30.49956 105.33675 33737 ft 436 kts 263°
2026-04-24 15:44 30.50030 105.28464 33858 ft 438 kts 275°
2026-04-24 15:44 30.50416 105.24995 33971 ft 437 kts 276°
2026-04-24 15:44 30.50817 105.21534 34038 ft 437 kts 276°
2026-04-24 15:45 30.51625 105.14539 34147 ft 437 kts 276°
2026-04-24 15:45 30.52424 105.07567 34255 ft 437 kts 276°
2026-04-24 15:46 30.53216 105.00616 34358 ft 436 kts 276°
2026-04-24 15:46 30.54003 104.93676 34460 ft 435 kts 275°
2026-04-24 15:47 30.54784 104.86752 34558 ft 435 kts 275°
2026-04-24 15:47 30.55567 104.79781 34650 ft 434 kts 275°
2026-04-24 15:48 30.56334 104.72911 34743 ft 432 kts 275°
2026-04-24 15:48 30.57448 104.66045 34832 ft 432 kts 280°
2026-04-24 15:49 30.58793 104.59267 34910 ft 432 kts 284°
2026-04-24 15:49 30.61426 104.53011 34988 ft 439 kts 303°
2026-04-24 15:50 30.65796 104.48051 35060 ft 449 kts 322°
2026-04-24 15:50 30.71479 104.44973 35139 ft 458 kts 337°
2026-04-24 15:51 30.77506 104.42679 35224 ft 457 kts 337°
2026-04-24 15:51 30.83541 104.40377 35304 ft 455 kts 337°
2026-04-24 15:52 30.89730 104.38953 35381 ft 464 kts 353°
2026-04-24 15:52 30.96158 104.38753 35465 ft 463 kts 353°
2026-04-24 15:53 31.02570 104.38590 35543 ft 462 kts 352°
2026-04-24 15:53 31.08970 104.38423 35623 ft 460 kts 351°
2026-04-24 15:54 31.15310 104.38257 35691 ft 458 kts 351°
2026-04-24 15:54 31.21662 104.38089 35755 ft 456 kts 351°
2026-04-24 15:55 31.27923 104.37872 35825 ft 453 kts 349°
2026-04-24 15:55 31.34198 104.37490 35893 ft 451 kts 349°
2026-04-24 15:56 31.40417 104.37116 35957 ft 449 kts 349°
2026-04-24 15:56 31.46604 104.36749 36024 ft 447 kts 349°
2026-04-24 15:57 31.52809 104.36383 36093 ft 445 kts 349°
2026-04-24 15:57 31.58959 104.36021 36105 ft 445 kts 349°
2026-04-24 15:58 31.65088 104.35661 36106 ft 444 kts 349°
2026-04-24 15:58 31.71237 104.35299 36105 ft 445 kts 349°
2026-04-24 15:59 31.77420 104.34935 36113 ft 445 kts 349°
2026-04-24 15:59 31.83586 104.34617 36129 ft 446 kts 349°
2026-04-24 16:00 31.89754 104.34304 36120 ft 447 kts 349°
2026-04-24 16:00 31.95970 104.33987 36125 ft 448 kts 349°
2026-04-24 16:01 32.02150 104.33670 36124 ft 449 kts 349°
2026-04-24 16:01 32.08358 104.33351 36122 ft 450 kts 349°
2026-04-24 16:02 32.14613 104.33030 36123 ft 450 kts 349°
2026-04-24 16:02 32.20833 104.32709 36118 ft 451 kts 349°
2026-04-24 16:03 32.27106 104.32385 36115 ft 452 kts 349°
2026-04-24 16:03 32.33365 104.32062 36124 ft 452 kts 349°
2026-04-24 16:04 32.39609 104.31738 36118 ft 452 kts 349°
2026-04-24 16:04 32.45890 104.31427 36117 ft 453 kts 350°
2026-04-24 16:05 32.55283 104.30978 36116 ft 454 kts 350°
2026-04-24 16:06 32.64722 104.30524 36121 ft 454 kts 350°
2026-04-24 16:07 32.74168 104.30070 36121 ft 455 kts 350°
2026-04-24 16:07 32.83620 104.29614 36120 ft 455 kts 350°
2026-04-24 16:08 32.93077 104.29157 36119 ft 456 kts 350°
2026-04-24 16:09 33.02542 104.28699 36121 ft 457 kts 349°
2026-04-24 16:09 33.08900 104.28390 36123 ft 457 kts 348°
2026-04-24 16:11 33.24748 104.27602 36115 ft 456 kts 345°
2026-04-24 16:11 33.27815 104.27045 36116 ft 444 kts 336°
2026-04-24 16:11 33.30736 104.25964 36112 ft 433 kts 328°
2026-04-24 16:12 33.35815 104.22513 36115 ft 413 kts 312°
2026-04-24 16:12 33.37927 104.20261 36118 ft 404 kts 305°
2026-04-24 16:12 33.41210 104.14989 36116 ft 390 kts 291°
2026-04-24 16:13 33.42477 104.12154 36120 ft 389 kts 291°
2026-04-24 16:14 33.47536 104.00745 36149 ft 389 kts 291°
2026-04-24 16:14 33.51340 103.92194 36176 ft 388 kts 291°
2026-04-24 16:15 33.55136 103.83652 36198 ft 387 kts 291°
2026-04-24 16:16 33.58920 103.75121 36222 ft 386 kts 291°
2026-04-24 16:17 33.65179 103.60970 36231 ft 385 kts 291°
2026-04-24 16:18 33.70181 103.49618 36227 ft 384 kts 291°
2026-04-24 16:19 33.73910 103.41132 36231 ft 384 kts 291°
2026-04-24 16:20 33.77622 103.32664 36249 ft 383 kts 290°
2026-04-24 16:20 33.81327 103.24191 36246 ft 384 kts 291°
2026-04-24 16:21 33.85045 103.15666 36244 ft 385 kts 291°
2026-04-24 16:22 33.87520 103.09981 36243 ft 385 kts 291°
2026-04-24 16:22 33.91248 103.01400 36241 ft 385 kts 291°
2026-04-24 16:23 33.93716 102.95707 36243 ft 385 kts 291°
2026-04-24 16:24 33.97425 102.87135 36238 ft 385 kts 291°
2026-04-24 16:24 33.99885 102.81437 36238 ft 385 kts 291°
2026-04-24 16:25 34.02346 102.75728 36238 ft 385 kts 291°
2026-04-24 16:25 34.04803 102.70019 36234 ft 384 kts 291°
2026-04-24 16:26 34.08463 102.61498 36236 ft 384 kts 291°
2026-04-24 16:27 34.12132 102.52934 36228 ft 383 kts 291°
2026-04-24 16:27 34.14564 102.47245 36227 ft 382 kts 291°
2026-04-24 16:28 34.16979 102.41587 36227 ft 381 kts 291°
2026-04-24 16:28 34.20652 102.33082 36240 ft 380 kts 291°
2026-04-24 16:29 34.23155 102.27453 36244 ft 381 kts 291°
2026-04-24 16:30 34.28126 102.16222 36240 ft 381 kts 291°
2026-04-24 16:30 34.30629 102.10548 36241 ft 381 kts 291°
2026-04-24 16:31 34.33121 102.04890 36240 ft 382 kts 291°
2026-04-24 16:31 34.35607 101.99235 36237 ft 382 kts 291°
2026-04-24 16:32 34.38076 101.93610 36237 ft 382 kts 291°
2026-04-24 16:32 34.40566 101.87928 36236 ft 381 kts 291°
2026-04-24 16:33 34.43036 101.82281 36236 ft 381 kts 291°
2026-04-24 16:33 34.45511 101.76614 36237 ft 381 kts 291°
2026-04-24 16:34 34.47973 101.70966 36229 ft 381 kts 291°
2026-04-24 16:34 34.50444 101.65289 36232 ft 381 kts 291°
2026-04-24 16:35 34.52911 101.59611 36233 ft 380 kts 291°
2026-04-24 16:35 34.55357 101.53974 36230 ft 380 kts 291°
2026-04-24 16:36 34.57813 101.48304 36229 ft 380 kts 291°
2026-04-24 16:36 34.60261 101.42641 36228 ft 379 kts 291°
2026-04-24 16:37 34.62701 101.36988 36230 ft 379 kts 291°
2026-04-24 16:37 34.65133 101.31346 36244 ft 379 kts 291°
2026-04-24 16:38 34.67574 101.25672 36243 ft 380 kts 290°
2026-04-24 16:38 34.70016 101.19988 36243 ft 380 kts 290°
2026-04-24 16:39 34.72461 101.14286 36245 ft 381 kts 291°
2026-04-24 16:39 34.74888 101.08616 36245 ft 381 kts 291°
2026-04-24 16:40 34.77335 101.02891 36242 ft 381 kts 291°
2026-04-24 16:40 34.79776 100.97169 36238 ft 382 kts 290°
2026-04-24 16:41 34.82213 100.91447 36242 ft 382 kts 290°
2026-04-24 16:41 34.84653 100.85710 36243 ft 383 kts 290°
2026-04-24 16:42 34.87083 100.79986 36236 ft 383 kts 290°
2026-04-24 16:42 34.89535 100.74200 36236 ft 383 kts 290°
2026-04-24 16:43 34.91962 100.68462 36238 ft 383 kts 290°
2026-04-24 16:43 34.94388 100.62717 36235 ft 383 kts 290°
2026-04-24 16:44 34.96824 100.56941 36237 ft 383 kts 290°
2026-04-24 16:44 34.99252 100.51171 36233 ft 383 kts 289°
2026-04-24 16:45 35.01678 100.45399 36230 ft 383 kts 289°
2026-04-24 16:45 35.04102 100.39618 36234 ft 383 kts 289°
2026-04-24 16:46 35.06518 100.33848 36246 ft 383 kts 289°
2026-04-24 16:46 35.08937 100.28062 36248 ft 384 kts 288°
2026-04-24 16:47 35.11356 100.22263 36238 ft 384 kts 288°
2026-04-24 16:47 35.13789 100.16424 36238 ft 385 kts 288°
2026-04-24 16:48 35.16200 100.10624 36238 ft 385 kts 288°
2026-04-24 16:48 35.18608 100.04824 36236 ft 385 kts 288°
2026-04-24 16:49 35.21028 99.98985 36237 ft 385 kts 289°
2026-04-24 16:49 35.23440 99.93153 36236 ft 385 kts 288°
2026-04-24 16:50 35.25831 99.87363 36234 ft 385 kts 288°
2026-04-24 16:50 35.28239 99.81519 36231 ft 385 kts 288°
2026-04-24 16:51 35.30639 99.75688 36232 ft 384 kts 288°
2026-04-24 16:51 35.33029 99.69871 36233 ft 384 kts 288°
2026-04-24 16:52 35.35418 99.64043 36231 ft 384 kts 288°
2026-04-24 16:52 35.37802 99.58219 36228 ft 383 kts 288°
2026-04-24 16:53 35.40186 99.52383 36229 ft 383 kts 288°
2026-04-24 16:53 35.42552 99.46584 36229 ft 383 kts 288°
2026-04-24 16:54 35.44926 99.40753 36225 ft 382 kts 288°
2026-04-24 16:54 35.47293 99.34930 36227 ft 382 kts 288°
2026-04-24 16:55 35.49649 99.29122 36246 ft 382 kts 288°
2026-04-24 16:55 35.52007 99.23299 36244 ft 383 kts 288°
2026-04-24 16:56 35.54368 99.17458 36244 ft 383 kts 288°
2026-04-24 16:56 35.56734 99.11596 36243 ft 384 kts 288°
2026-04-24 16:57 35.59094 99.05737 36239 ft 384 kts 288°
2026-04-24 16:57 35.61458 98.99857 36242 ft 385 kts 288°
2026-04-24 16:58 35.63819 98.93975 36238 ft 385 kts 288°
2026-04-24 16:58 35.66183 98.88075 36239 ft 386 kts 289°
2026-04-24 16:59 35.68550 98.82155 36239 ft 386 kts 289°
2026-04-24 17:00 35.72092 98.73279 36232 ft 387 kts 289°
2026-04-24 17:00 35.75643 98.64357 36235 ft 387 kts 289°
2026-04-24 17:01 35.79176 98.55455 36231 ft 387 kts 289°
2026-04-24 17:02 35.82700 98.46549 36234 ft 387 kts 289°
2026-04-24 17:02 35.85051 98.40595 36231 ft 387 kts 289°
2026-04-24 17:03 35.88599 98.31583 35996 ft 394 kts 288°
2026-04-24 17:04 35.91000 98.25475 35978 ft 396 kts 288°
2026-04-24 17:04 35.94613 98.16264 35980 ft 398 kts 288°
2026-04-24 17:05 35.97010 98.10133 35977 ft 399 kts 288°
2026-04-24 17:06 36.00641 98.00829 35976 ft 400 kts 288°
2026-04-24 17:06 36.04272 97.91497 35976 ft 401 kts 288°
2026-04-24 17:07 36.06690 97.85269 36000 ft 401 kts 288°
2026-04-24 17:08 36.11507 97.72821 36014 ft 401 kts 288°
2026-04-24 17:08 36.13917 97.66576 36001 ft 401 kts 288°
2026-04-24 17:09 36.18861 97.54169 36049 ft 400 kts 289°
2026-04-24 17:10 36.23822 97.41879 36078 ft 398 kts 289°
2026-04-24 17:12 36.33669 97.17311 36180 ft 396 kts 289°
2026-04-24 18:54 40.70316 83.01720 36197 ft 443 kts 285°
2026-04-24 18:55 40.72692 82.89897 36195 ft 443 kts 286°
2026-04-24 18:56 40.74259 82.82061 36195 ft 443 kts 286°
2026-04-24 18:56 40.75091 82.77891 36196 ft 443 kts 286°
2026-04-24 18:57 40.76507 82.70768 36194 ft 443 kts 286°
2026-04-24 18:57 40.78066 82.62901 36193 ft 443 kts 286°
2026-04-24 18:58 40.79616 82.55048 36197 ft 443 kts 286°
2026-04-24 18:58 40.81171 82.47138 36189 ft 443 kts 286°
2026-04-24 18:59 40.82713 82.39259 36183 ft 443 kts 286°
2026-04-24 18:59 40.84244 82.31410 36180 ft 443 kts 285°
2026-04-24 19:00 40.85782 82.23495 36178 ft 444 kts 285°
2026-04-24 19:00 40.87312 82.15588 36179 ft 444 kts 285°
2026-04-24 19:01 40.88831 82.07703 36177 ft 444 kts 285°
2026-04-24 19:01 40.90353 81.99774 36176 ft 444 kts 285°
2026-04-24 19:02 40.91870 81.91843 36174 ft 444 kts 285°
2026-04-24 19:02 40.93383 81.83894 36175 ft 444 kts 285°
2026-04-24 19:03 40.94887 81.75962 36174 ft 444 kts 285°
2026-04-24 19:03 40.96389 81.68009 36173 ft 444 kts 286°
2026-04-24 19:04 40.98023 81.60141 36176 ft 444 kts 288°
2026-04-24 19:04 40.99769 81.52300 36188 ft 443 kts 288°
2026-04-24 19:05 41.01494 81.44473 36202 ft 442 kts 288°
2026-04-24 19:05 41.03208 81.36639 36211 ft 441 kts 288°
2026-04-24 19:06 41.04906 81.28841 35989 ft 447 kts 288°
2026-04-24 19:06 41.06623 81.20915 35946 ft 447 kts 288°
2026-04-24 19:07 41.08331 81.12999 35947 ft 447 kts 288°
2026-04-24 19:07 41.10038 81.05057 35948 ft 447 kts 287°
2026-04-24 19:08 41.11736 80.97128 35951 ft 447 kts 287°
2026-04-24 19:08 41.13427 80.89206 35949 ft 447 kts 286°
2026-04-24 19:09 41.15115 80.81258 35953 ft 447 kts 286°
2026-04-24 19:09 41.16798 80.73312 35950 ft 447 kts 286°
2026-04-24 19:10 41.18469 80.65386 35946 ft 447 kts 286°
2026-04-24 19:10 41.20145 80.57412 35950 ft 447 kts 286°
2026-04-24 19:11 41.21812 80.49447 35948 ft 448 kts 286°
2026-04-24 19:11 41.23478 80.41458 35948 ft 448 kts 286°
2026-04-24 19:12 41.25139 80.33459 35948 ft 447 kts 285°
2026-04-24 19:12 41.26805 80.25488 35953 ft 448 kts 286°
2026-04-24 19:13 41.28247 80.18857 35955 ft 448 kts 286°
2026-04-24 19:13 41.30250 80.09611 35948 ft 448 kts 286°
2026-04-24 19:14 41.31977 80.01591 35950 ft 448 kts 286°
2026-04-24 19:14 41.33690 79.93604 35949 ft 448 kts 286°
2026-04-24 19:15 41.35386 79.85661 35950 ft 448 kts 286°
2026-04-24 19:15 41.37085 79.77676 35949 ft 448 kts 286°
2026-04-24 19:16 41.39623 79.65687 35948 ft 448 kts 286°
2026-04-24 19:16 41.41305 79.57700 35944 ft 448 kts 286°
2026-04-24 19:17 41.42983 79.49710 35949 ft 448 kts 286°
2026-04-24 19:17 41.44650 79.41734 35947 ft 448 kts 286°
2026-04-24 19:18 41.46318 79.33725 35951 ft 448 kts 285°
2026-04-24 19:18 41.47977 79.25726 35951 ft 449 kts 285°
2026-04-24 19:19 41.49637 79.17696 35953 ft 449 kts 285°
2026-04-24 19:19 41.51291 79.09663 35951 ft 449 kts 285°
2026-04-24 19:20 41.52939 79.01627 35953 ft 449 kts 285°
2026-04-24 19:20 41.54584 78.93576 35950 ft 449 kts 285°
2026-04-24 19:21 41.56160 78.85536 36181 ft 442 kts 280°
2026-04-24 19:21 41.56456 78.77418 36266 ft 440 kts 269°
2026-04-24 19:22 41.56209 78.69245 36253 ft 440 kts 268°
2026-04-24 19:22 41.55947 78.61067 36255 ft 440 kts 269°
2026-04-24 19:23 41.55678 78.52921 36260 ft 440 kts 268°
2026-04-24 19:23 41.55401 78.44750 36257 ft 439 kts 268°
2026-04-24 19:24 41.55119 78.36607 36253 ft 439 kts 268°
2026-04-24 19:24 41.54829 78.28448 36266 ft 439 kts 268°
2026-04-24 19:25 41.54534 78.20305 36266 ft 439 kts 268°
2026-04-24 19:25 41.54234 78.12158 36265 ft 440 kts 268°
2026-04-24 19:26 41.53927 78.04002 36260 ft 440 kts 268°
2026-04-24 19:26 41.53616 77.95882 36253 ft 439 kts 268°
2026-04-24 19:27 41.53298 77.87745 36256 ft 439 kts 268°
2026-04-24 19:27 41.52972 77.79565 36251 ft 439 kts 268°
2026-04-24 19:28 41.52644 77.71459 36259 ft 438 kts 268°
2026-04-24 19:28 41.52309 77.63331 36260 ft 438 kts 268°
2026-04-24 19:29 41.51799 77.51182 36255 ft 439 kts 268°
2026-04-24 19:30 41.51448 77.43013 36256 ft 439 kts 268°
2026-04-24 19:30 41.51094 77.34892 36256 ft 438 kts 267°
2026-04-24 19:31 41.50734 77.26778 36269 ft 438 kts 267°
2026-04-24 19:31 41.50367 77.18655 36256 ft 439 kts 267°
2026-04-24 19:32 41.49995 77.10519 36258 ft 438 kts 267°
2026-04-24 19:32 41.49617 77.02389 36262 ft 438 kts 267°
2026-04-24 19:33 41.49233 76.94255 36263 ft 438 kts 267°
2026-04-24 19:33 41.48844 76.86153 36261 ft 438 kts 266°
2026-04-24 19:34 41.48450 76.78027 36257 ft 438 kts 266°
2026-04-24 19:34 41.48051 76.69946 36256 ft 438 kts 266°
2026-04-24 19:35 41.47645 76.61842 36257 ft 438 kts 266°
2026-04-24 19:35 41.47234 76.53727 36255 ft 438 kts 266°
2026-04-24 19:36 41.46817 76.45626 36254 ft 438 kts 266°
2026-04-24 19:36 41.46396 76.37561 36253 ft 437 kts 266°
2026-04-24 19:37 41.45966 76.29422 36261 ft 437 kts 266°
2026-04-24 19:37 41.45535 76.21381 36264 ft 437 kts 266°
2026-04-24 19:38 41.45096 76.13294 36262 ft 438 kts 266°
2026-04-24 19:38 41.44649 76.05169 36262 ft 438 kts 266°
2026-04-24 19:39 41.44201 75.97117 36260 ft 438 kts 266°
2026-04-24 19:39 41.43742 75.88991 36261 ft 438 kts 266°
2026-04-24 19:40 41.43280 75.80904 36260 ft 438 kts 266°
2026-04-24 19:40 41.42809 75.72759 36256 ft 438 kts 266°
2026-04-24 19:41 41.42338 75.64688 36255 ft 438 kts 266°
2026-04-24 19:41 41.41859 75.56570 36255 ft 438 kts 266°
2026-04-24 19:42 41.41375 75.48473 36249 ft 438 kts 266°
2026-04-24 19:42 41.40887 75.40411 36241 ft 438 kts 266°
2026-04-24 19:43 41.40390 75.32290 36231 ft 438 kts 265°
2026-04-24 19:43 41.39890 75.24223 36202 ft 439 kts 265°
2026-04-24 19:44 41.39382 75.16113 36177 ft 440 kts 265°
2026-04-24 19:44 41.38868 75.07997 36156 ft 441 kts 265°
2026-04-24 19:45 41.38348 74.99869 36159 ft 441 kts 265°
2026-04-24 19:45 41.37820 74.91734 36156 ft 441 kts 265°
2026-04-24 19:46 41.37286 74.83569 36156 ft 442 kts 265°
2026-04-24 19:46 41.36748 74.75444 36155 ft 442 kts 265°
2026-04-24 19:47 41.36208 74.67371 36155 ft 442 kts 265°
2026-04-24 19:47 41.35655 74.59196 36153 ft 442 kts 265°
2026-04-24 19:48 41.35101 74.51099 36152 ft 442 kts 265°
2026-04-24 19:48 41.34256 74.38889 36150 ft 442 kts 265°
2026-04-24 19:49 41.33110 74.22635 36157 ft 442 kts 264°
2026-04-24 19:50 41.31940 74.06363 36155 ft 443 kts 264°
2026-04-24 19:51 41.31194 73.94174 36156 ft 442 kts 267°
2026-04-24 19:52 41.30710 73.81950 36156 ft 443 kts 267°
2026-04-24 19:52 41.30367 73.73779 36158 ft 443 kts 266°
2026-04-24 19:53 41.30013 73.65596 36153 ft 443 kts 266°
2026-04-24 19:54 41.29468 73.53346 36150 ft 443 kts 266°
2026-04-24 19:54 41.29098 73.45225 36153 ft 442 kts 266°
2026-04-24 19:55 41.28785 73.38439 36154 ft 442 kts 266°
2026-04-24 19:55 41.28337 73.28891 36158 ft 442 kts 266°
2026-04-24 19:56 41.27948 73.20760 36161 ft 443 kts 266°
2026-04-24 19:56 41.27552 73.12573 36151 ft 443 kts 266°
2026-04-24 19:57 41.27153 73.04460 36145 ft 443 kts 266°
2026-04-24 19:57 41.26744 72.96259 36141 ft 444 kts 266°
2026-04-24 19:58 41.26333 72.88123 36130 ft 444 kts 266°
2026-04-24 19:58 41.25912 72.79926 36135 ft 444 kts 266°
2026-04-24 19:59 41.25488 72.71784 36131 ft 444 kts 266°
2026-04-24 19:59 41.25058 72.63613 36133 ft 444 kts 266°
2026-04-24 20:00 41.24623 72.55481 36134 ft 444 kts 266°
2026-04-24 20:00 41.24181 72.47327 36134 ft 444 kts 266°
2026-04-24 20:01 41.23732 72.39133 36132 ft 444 kts 266°
2026-04-24 20:01 41.23278 72.30970 36137 ft 444 kts 265°
2026-04-24 20:02 41.22818 72.22805 36137 ft 444 kts 265°
2026-04-24 20:02 41.22356 72.14665 36140 ft 444 kts 265°
2026-04-24 20:03 41.21887 72.06493 36136 ft 445 kts 265°
2026-04-24 20:03 41.21413 71.98322 36136 ft 445 kts 265°
2026-04-24 20:04 41.20931 71.90112 36138 ft 445 kts 265°
2026-04-24 20:04 41.20446 71.81982 36137 ft 445 kts 265°
2026-04-24 20:05 41.19951 71.73776 36135 ft 445 kts 265°
2026-04-24 20:05 41.19450 71.65626 36132 ft 445 kts 265°
2026-04-24 20:06 41.18942 71.57436 36132 ft 445 kts 265°
2026-04-24 20:06 41.18431 71.49295 36134 ft 445 kts 265°
2026-04-24 20:07 41.17996 71.42446 35988 ft 449 kts 265°
2026-04-24 20:07 41.17387 71.32956 35947 ft 449 kts 265°
2026-04-24 20:08 41.16847 71.24640 35951 ft 450 kts 265°
2026-04-24 20:08 41.16306 71.16402 35954 ft 450 kts 265°
2026-04-24 20:09 41.15757 71.08135 35951 ft 451 kts 265°
2026-04-24 20:09 41.15201 70.99848 35951 ft 451 kts 265°
2026-04-24 20:10 41.14637 70.91550 35952 ft 451 kts 266°
2026-04-24 20:10 41.14070 70.83273 35951 ft 450 kts 266°
2026-04-24 20:11 41.13500 70.75059 35949 ft 449 kts 267°
2026-04-24 20:11 41.12922 70.66801 35949 ft 448 kts 267°
2026-04-24 20:12 41.12338 70.58568 35948 ft 448 kts 267°
2026-04-24 20:12 41.11749 70.50356 35948 ft 447 kts 267°
2026-04-24 20:13 41.11157 70.42173 35947 ft 447 kts 267°
2026-04-24 20:13 41.10555 70.33941 35948 ft 446 kts 266°
2026-04-24 20:14 41.09949 70.25758 35953 ft 447 kts 265°
2026-04-24 20:14 41.08690 70.17687 35953 ft 449 kts 259°
2026-04-24 20:15 41.07252 70.09647 35953 ft 450 kts 259°
2026-04-24 20:15 41.05807 70.01585 35953 ft 450 kts 259°
2026-04-24 20:16 41.04359 69.93541 35952 ft 450 kts 259°
2026-04-24 20:16 41.02899 69.85465 35951 ft 451 kts 259°
2026-04-24 20:17 41.01441 69.77429 35950 ft 451 kts 259°
2026-04-24 20:17 40.99226 69.65289 35949 ft 451 kts 259°
2026-04-24 20:18 40.97746 69.57218 35951 ft 452 kts 259°
2026-04-24 20:18 40.96257 69.49138 35946 ft 452 kts 259°
2026-04-24 20:19 40.94769 69.41090 35949 ft 452 kts 259°
2026-04-24 20:19 40.93268 69.33010 35954 ft 452 kts 258°
2026-04-24 20:20 40.91772 69.24988 35956 ft 453 kts 258°
2026-04-24 20:20 40.90249 69.16854 35952 ft 453 kts 258°
2026-04-24 20:21 40.88732 69.08787 35950 ft 454 kts 258°
2026-04-24 20:21 40.87207 69.00713 35950 ft 454 kts 257°
2026-04-24 20:22 40.85681 68.92667 36085 ft 450 kts 257°
2026-04-24 20:22 40.84155 68.84656 36094 ft 449 kts 256°
2026-04-24 20:23 40.82636 68.76712 36093 ft 449 kts 256°
2026-04-24 20:23 40.81101 68.68713 36093 ft 449 kts 256°
2026-04-24 20:24 40.79676 68.60758 36092 ft 448 kts 257°
2026-04-24 20:24 40.78211 68.52744 36090 ft 448 kts 254°
2026-04-24 20:25 40.76389 68.44935 36091 ft 447 kts 253°
2026-04-24 20:25 40.74566 68.37125 36090 ft 447 kts 253°
2026-04-24 20:26 40.72748 68.29314 36097 ft 447 kts 253°
2026-04-24 20:26 40.71023 68.21426 36093 ft 447 kts 259°
2026-04-24 20:27 40.70187 68.13368 36096 ft 446 kts 262°
2026-04-24 20:27 40.69419 68.05293 36095 ft 447 kts 262°
2026-04-24 20:28 40.68636 67.97144 36095 ft 447 kts 262°
2026-04-24 20:28 40.67852 67.89070 36094 ft 447 kts 262°
2026-04-24 20:29 40.67059 67.80960 36094 ft 447 kts 262°
2026-04-24 20:29 40.66266 67.72912 36093 ft 447 kts 262°
2026-04-24 20:30 40.65359 67.64813 36092 ft 447 kts 261°
2026-04-24 20:30 40.64353 67.56770 36092 ft 446 kts 261°
2026-04-24 20:31 40.63346 67.48711 36091 ft 446 kts 261°
2026-04-24 20:31 40.62340 67.40677 36090 ft 446 kts 261°
2026-04-24 20:32 40.61328 67.32624 36096 ft 446 kts 260°
2026-04-24 20:32 40.60313 67.24577 36097 ft 446 kts 260°
2026-04-24 20:33 40.59296 67.16560 36096 ft 447 kts 260°
2026-04-24 20:33 40.58267 67.08491 36101 ft 447 kts 260°
2026-04-24 20:34 40.57232 67.00423 36106 ft 447 kts 260°
2026-04-24 20:34 40.56196 66.92392 36114 ft 447 kts 260°
2026-04-24 20:35 40.55032 66.84388 36123 ft 446 kts 258°
2026-04-24 20:35 40.53774 66.76387 36130 ft 446 kts 258°
2026-04-24 20:36 40.52514 66.68359 36134 ft 446 kts 258°
2026-04-24 20:36 40.51263 66.60400 36133 ft 446 kts 258°
2026-04-24 20:37 40.50005 66.52419 36133 ft 446 kts 258°
2026-04-24 20:37 40.48740 66.44428 36126 ft 446 kts 258°
2026-04-24 20:38 40.47479 66.36493 36086 ft 447 kts 258°
2026-04-24 20:38 40.46203 66.28498 36052 ft 448 kts 258°
2026-04-24 20:39 40.44921 66.20502 36015 ft 450 kts 258°
2026-04-24 20:39 40.43636 66.12476 36013 ft 450 kts 258°
2026-04-24 20:40 40.42350 66.04452 36012 ft 450 kts 258°
2026-04-24 20:40 40.41057 65.96419 36012 ft 450 kts 258°
2026-04-24 20:41 40.39759 65.88394 36011 ft 450 kts 258°
2026-04-24 20:41 40.38462 65.80413 36011 ft 450 kts 258°
2026-04-24 20:42 40.37152 65.72389 36010 ft 450 kts 258°
2026-04-24 20:42 40.35836 65.64371 36010 ft 450 kts 258°
2026-04-24 20:43 40.34523 65.56403 36009 ft 450 kts 258°
2026-04-24 20:43 40.33193 65.48357 36008 ft 450 kts 258°
2026-04-24 20:44 40.31870 65.40389 36008 ft 450 kts 258°
2026-04-24 20:44 40.30529 65.32349 36014 ft 450 kts 257°
2026-04-24 20:45 40.29192 65.24369 36014 ft 450 kts 257°
2026-04-24 20:45 40.27847 65.16377 36013 ft 451 kts 257°
2026-04-24 20:46 40.26500 65.08411 36013 ft 451 kts 257°
2026-04-24 20:46 40.25140 65.00401 36013 ft 451 kts 258°
2026-04-24 20:47 40.23775 64.92400 36013 ft 451 kts 258°
2026-04-24 20:47 40.22413 64.84454 36011 ft 450 kts 258°
2026-04-24 20:48 40.21038 64.76460 36010 ft 449 kts 259°
2026-04-24 20:48 40.19666 64.68524 36008 ft 448 kts 258°
2026-04-24 20:49 40.18294 64.60619 36008 ft 448 kts 259°
2026-04-24 20:49 40.16906 64.52660 36008 ft 447 kts 259°
2026-04-24 20:50 40.15527 64.44784 36006 ft 446 kts 258°
2026-04-24 20:50 40.14145 64.36927 36009 ft 446 kts 258°
2026-04-24 20:51 40.12751 64.29028 36015 ft 446 kts 258°
2026-04-24 20:51 40.11353 64.21146 36016 ft 446 kts 258°
2026-04-24 20:52 40.09952 64.13283 36014 ft 446 kts 258°
2026-04-24 20:52 40.08549 64.05435 36012 ft 446 kts 258°
2026-04-24 20:53 40.07132 63.97544 36013 ft 446 kts 258°
2026-04-24 20:53 40.05711 63.89668 36013 ft 446 kts 258°
2026-04-24 20:54 40.04289 63.81819 36013 ft 446 kts 258°
2026-04-24 20:54 40.02857 63.73941 36012 ft 446 kts 258°
2026-04-24 20:55 40.01427 63.66110 36011 ft 446 kts 258°
2026-04-24 20:55 39.99993 63.58274 36009 ft 446 kts 258°
2026-04-24 20:56 39.98553 63.50436 36009 ft 445 kts 258°
2026-04-24 20:56 39.97113 63.42627 36012 ft 445 kts 258°
2026-04-24 20:57 39.95660 63.34786 36004 ft 445 kts 257°
2026-04-24 20:57 39.94199 63.26936 36018 ft 445 kts 257°
2026-04-24 20:58 39.92743 63.19138 36014 ft 446 kts 257°
2026-04-24 20:58 39.91279 63.11330 36012 ft 446 kts 257°
2026-04-24 20:59 39.89802 63.03482 36012 ft 446 kts 257°
2026-04-24 20:59 39.88321 62.95647 36008 ft 446 kts 258°
2026-04-24 21:00 39.86834 62.87810 36012 ft 446 kts 258°
2026-04-24 21:00 39.85343 62.79987 36009 ft 446 kts 258°
2026-04-24 21:01 39.84423 62.72120 36015 ft 443 kts 271°
2026-04-24 21:01 39.84607 62.64119 36013 ft 442 kts 272°
2026-04-24 21:02 39.84821 62.56136 36007 ft 443 kts 272°
2026-04-24 21:02 39.85025 62.48138 36009 ft 442 kts 272°
2026-04-24 21:03 39.85220 62.40206 36007 ft 442 kts 272°
2026-04-24 21:03 39.85411 62.32190 36016 ft 442 kts 272°
2026-04-24 21:04 39.85595 62.24216 36013 ft 443 kts 272°
2026-04-24 21:04 39.85773 62.16226 36012 ft 443 kts 272°
2026-04-24 21:05 39.85946 62.08213 36016 ft 443 kts 272°
2026-04-24 21:05 39.86112 62.00240 36008 ft 443 kts 272°
2026-04-24 21:06 39.86275 61.92201 36007 ft 443 kts 272°
2026-04-24 21:06 39.86430 61.84242 36008 ft 443 kts 272°
2026-04-24 21:07 39.86582 61.76187 36009 ft 443 kts 272°
2026-04-24 21:07 39.86727 61.68200 36000 ft 443 kts 272°
2026-04-24 21:08 39.86868 61.60164 35974 ft 444 kts 272°
2026-04-24 21:08 39.87001 61.52186 36014 ft 443 kts 272°
2026-04-24 21:09 39.87130 61.44198 36060 ft 441 kts 272°
2026-04-24 21:09 39.87256 61.36253 36072 ft 441 kts 272°
2026-04-24 21:10 39.87458 61.28252 36084 ft 441 kts 272°
2026-04-24 21:10 39.87657 61.20301 36079 ft 442 kts 272°
2026-04-24 21:11 39.87848 61.12355 36079 ft 442 kts 272°
2026-04-24 21:11 39.88034 61.04349 36080 ft 441 kts 273°
2026-04-24 21:12 39.88211 60.96401 36079 ft 440 kts 273°
2026-04-24 21:12 39.88383 60.88493 36076 ft 439 kts 273°
2026-04-24 21:13 39.88550 60.80560 36076 ft 438 kts 273°
2026-04-24 21:13 39.88710 60.72669 36072 ft 437 kts 273°
2026-04-24 21:14 39.88865 60.64764 36074 ft 436 kts 274°
2026-04-24 21:14 39.89013 60.56941 36072 ft 435 kts 273°
2026-04-24 21:15 39.89157 60.49075 36073 ft 435 kts 273°
2026-04-24 21:15 39.89295 60.41198 36067 ft 434 kts 274°
2026-04-24 21:16 39.89428 60.33359 36081 ft 434 kts 272°
2026-04-24 21:16 39.89547 60.25550 36082 ft 434 kts 272°
2026-04-24 21:17 39.89627 60.17686 36075 ft 434 kts 272°
2026-04-24 21:17 39.89703 60.09835 36079 ft 434 kts 272°
2026-04-24 21:18 39.89774 60.02006 36079 ft 434 kts 272°
2026-04-24 21:18 39.89841 59.94171 36074 ft 434 kts 272°
2026-04-24 21:19 39.89903 59.86292 36075 ft 434 kts 272°
2026-04-24 21:19 39.89959 59.78421 36072 ft 434 kts 272°
2026-04-24 21:20 39.90035 59.66643 36064 ft 434 kts 272°
2026-04-24 21:21 39.90078 59.58815 36051 ft 434 kts 272°
2026-04-24 21:21 39.90115 59.50975 36042 ft 434 kts 272°
2026-04-24 21:22 39.90149 59.43067 36023 ft 435 kts 272°
2026-04-24 21:22 39.90176 59.35193 36005 ft 435 kts 272°
2026-04-24 21:23 39.90181 59.27336 35995 ft 435 kts 272°
2026-04-24 21:23 39.90181 59.19422 35996 ft 436 kts 271°
2026-04-24 21:24 39.90175 59.11592 35999 ft 436 kts 271°
2026-04-24 21:24 39.90158 59.03667 36002 ft 436 kts 272°
2026-04-24 21:25 39.90128 58.95820 36003 ft 436 kts 271°
2026-04-24 21:25 39.90093 58.87934 36003 ft 436 kts 270°
2026-04-24 21:26 39.90052 58.80047 36003 ft 436 kts 270°
2026-04-24 21:26 39.90007 58.72169 36007 ft 436 kts 270°
2026-04-24 21:27 39.89955 58.64260 36005 ft 436 kts 270°
2026-04-24 21:27 39.89899 58.56431 36002 ft 436 kts 270°
2026-04-24 21:28 39.89838 58.48535 36009 ft 436 kts 270°
2026-04-24 21:28 39.89771 58.40655 36009 ft 435 kts 270°
2026-04-24 21:29 39.89699 58.32805 36015 ft 435 kts 269°
2026-04-24 21:29 39.89622 58.24947 36016 ft 436 kts 269°
2026-04-24 21:30 39.89539 58.17075 36014 ft 436 kts 269°
2026-04-24 21:30 39.89472 58.09203 36011 ft 436 kts 270°
2026-04-24 21:31 39.89408 58.01329 36011 ft 436 kts 269°
2026-04-24 21:31 39.89339 57.93447 36009 ft 436 kts 269°
2026-04-24 21:32 39.89263 57.85539 36012 ft 436 kts 269°
2026-04-24 21:32 39.89182 57.77684 36008 ft 436 kts 270°
2026-04-24 21:33 39.89095 57.69785 36007 ft 436 kts 270°
2026-04-24 21:33 39.89003 57.61959 36014 ft 436 kts 270°
2026-04-24 21:34 39.88905 57.54037 36004 ft 436 kts 269°
2026-04-24 21:34 39.88803 57.46205 36004 ft 436 kts 270°
2026-04-24 21:35 39.88694 57.38312 36003 ft 436 kts 269°
2026-04-24 21:35 39.88581 57.30450 36013 ft 436 kts 269°
2026-04-24 21:36 39.88462 57.22557 36009 ft 436 kts 269°
2026-04-24 21:36 39.88338 57.14702 36014 ft 436 kts 269°
2026-04-24 21:37 39.88208 57.06820 36010 ft 437 kts 269°
2026-04-24 21:37 39.88073 56.98918 36017 ft 437 kts 269°
2026-04-24 21:38 39.87933 56.91052 36010 ft 437 kts 269°
2026-04-24 21:38 39.87788 56.83161 36019 ft 437 kts 269°
2026-04-24 21:39 39.87637 56.75290 36053 ft 436 kts 268°
2026-04-24 21:39 39.87481 56.67430 36083 ft 435 kts 269°
2026-04-24 21:40 39.87319 56.59533 36114 ft 435 kts 268°
2026-04-24 21:40 39.87154 56.51728 36109 ft 435 kts 269°
2026-04-24 21:41 39.86981 56.43843 36106 ft 435 kts 269°
2026-04-24 21:41 39.86805 56.36004 36106 ft 434 kts 268°
2026-04-24 21:42 39.86623 56.28165 36077 ft 436 kts 268°
2026-04-24 21:42 39.86436 56.20282 36051 ft 437 kts 268°
2026-04-24 21:43 39.86248 56.12355 36014 ft 438 kts 268°
2026-04-24 21:43 39.86056 56.04446 36019 ft 438 kts 268°
2026-04-24 21:44 39.85859 55.96578 36008 ft 438 kts 268°
2026-04-24 21:44 39.85656 55.88676 36018 ft 438 kts 268°
2026-04-24 21:45 39.85447 55.80739 36004 ft 438 kts 268°
2026-04-24 21:45 39.85233 55.72836 36009 ft 438 kts 268°
2026-04-24 21:46 39.85015 55.64964 36010 ft 438 kts 268°
2026-04-24 21:46 39.84791 55.57088 36018 ft 437 kts 268°
2026-04-24 21:47 39.84560 55.49152 36021 ft 437 kts 268°
2026-04-24 21:47 39.84326 55.41303 36020 ft 437 kts 268°
2026-04-24 21:48 39.84085 55.33387 36031 ft 437 kts 268°
2026-04-24 21:48 39.83839 55.25504 36037 ft 437 kts 267°
2026-04-24 21:49 39.83589 55.17629 36041 ft 438 kts 267°
2026-04-24 21:49 39.83333 55.09750 36040 ft 438 kts 267°
2026-04-24 21:50 39.83078 55.01855 36033 ft 438 kts 268°
2026-04-24 21:50 39.82854 54.93893 36031 ft 439 kts 268°
2026-04-24 21:51 39.82625 54.86020 36033 ft 439 kts 268°
2026-04-24 21:51 39.82448 54.78103 36028 ft 440 kts 272°
2026-04-24 21:52 39.83596 54.70289 36034 ft 442 kts 283°
2026-04-24 21:52 39.85235 54.62616 36031 ft 442 kts 284°
2026-04-24 21:53 39.86878 54.54901 36027 ft 442 kts 283°
2026-04-24 21:53 39.88516 54.47177 36028 ft 442 kts 283°
2026-04-24 21:54 39.90128 54.39514 36026 ft 442 kts 283°
2026-04-24 21:54 39.91742 54.31778 36034 ft 442 kts 283°
2026-04-24 21:55 39.93349 54.24049 36040 ft 443 kts 283°
2026-04-24 21:55 39.94948 54.16333 36038 ft 443 kts 283°
2026-04-24 21:56 39.96544 54.08602 36037 ft 444 kts 283°
2026-04-24 21:56 39.98141 54.00835 36033 ft 444 kts 283°
2026-04-24 21:57 39.99738 53.93046 36032 ft 444 kts 283°
2026-04-24 21:57 40.01316 53.85317 36029 ft 444 kts 283°
2026-04-24 21:58 40.02896 53.77551 36030 ft 444 kts 283°
2026-04-24 21:58 40.04467 53.69800 36032 ft 444 kts 283°
2026-04-24 21:59 40.06042 53.61995 36032 ft 444 kts 283°
2026-04-24 21:59 40.07605 53.54226 36028 ft 444 kts 283°
2026-04-24 22:00 40.09163 53.46449 36030 ft 443 kts 283°
2026-04-24 22:00 40.10708 53.38712 36026 ft 443 kts 283°
2026-04-24 22:01 40.12259 53.30909 36032 ft 443 kts 282°
2026-04-24 22:01 40.13802 53.23122 36033 ft 443 kts 282°
2026-04-24 22:02 40.15329 53.15381 36035 ft 444 kts 282°
2026-04-24 22:02 40.16869 53.07550 36032 ft 444 kts 282°
2026-04-24 22:03 40.18395 52.99756 36030 ft 444 kts 282°
2026-04-24 22:03 40.19917 52.91954 36030 ft 444 kts 282°
2026-04-24 22:04 40.21434 52.84145 36028 ft 445 kts 282°
2026-04-24 22:04 40.22950 52.76310 36030 ft 445 kts 282°
2026-04-24 22:05 40.24454 52.68507 36027 ft 446 kts 282°
2026-04-24 22:05 40.25966 52.60637 36029 ft 446 kts 282°
2026-04-24 22:06 40.27469 52.52789 36029 ft 446 kts 282°
2026-04-24 22:06 40.28969 52.44943 36030 ft 446 kts 282°
2026-04-24 22:07 40.30472 52.37053 36027 ft 447 kts 282°
2026-04-24 22:07 40.31970 52.29153 36038 ft 447 kts 282°
2026-04-24 22:08 40.33456 52.21278 36032 ft 447 kts 282°
2026-04-24 22:08 40.34944 52.13366 36032 ft 448 kts 282°
2026-04-24 22:09 40.36431 52.05428 36014 ft 448 kts 282°
2026-04-24 22:09 40.37901 51.97548 36014 ft 448 kts 282°
2026-04-24 22:10 40.39374 51.89622 36010 ft 449 kts 282°
2026-04-24 22:10 40.40842 51.81685 36009 ft 449 kts 282°
2026-04-24 22:11 40.42303 51.73758 36011 ft 448 kts 282°
2026-04-24 22:11 40.43764 51.65796 36010 ft 448 kts 282°
2026-04-24 22:12 40.45217 51.57843 36009 ft 448 kts 282°
2026-04-24 22:12 40.46666 51.49878 36016 ft 448 kts 282°
2026-04-24 22:13 40.48253 51.41977 36020 ft 448 kts 283°
2026-04-24 22:13 40.49878 51.34068 36027 ft 448 kts 283°
2026-04-24 22:14 40.51487 51.26170 36037 ft 448 kts 283°
2026-04-24 22:14 40.53104 51.18189 36035 ft 449 kts 283°
2026-04-24 22:15 40.54694 51.10301 36034 ft 449 kts 283°
2026-04-24 22:15 40.56288 51.02358 36036 ft 448 kts 283°
2026-04-24 22:16 40.57874 50.94419 36034 ft 447 kts 283°
2026-04-24 22:16 40.59441 50.86546 36029 ft 445 kts 283°
2026-04-24 22:17 40.61004 50.78661 36028 ft 444 kts 283°
2026-04-24 22:17 40.62566 50.70750 36027 ft 442 kts 283°
2026-04-24 22:18 40.64105 50.62926 36027 ft 441 kts 283°
2026-04-24 22:18 40.65634 50.55120 36030 ft 441 kts 283°
2026-04-24 22:19 40.67160 50.47304 36027 ft 440 kts 283°
2026-04-24 22:19 40.68677 50.39491 36029 ft 439 kts 283°
2026-04-24 22:20 40.70195 50.31633 36037 ft 439 kts 282°
2026-04-24 22:20 40.71697 50.23824 36032 ft 440 kts 282°
2026-04-24 22:21 40.73196 50.16007 36035 ft 440 kts 282°
2026-04-24 22:21 40.74691 50.08175 36035 ft 440 kts 282°
2026-04-24 22:22 40.76174 50.00372 36032 ft 440 kts 282°
2026-04-24 22:22 40.77663 49.92511 36031 ft 440 kts 282°
2026-04-24 22:23 40.79138 49.84694 36028 ft 440 kts 282°
2026-04-24 22:23 40.80616 49.76826 36032 ft 439 kts 282°
2026-04-24 22:24 40.82084 49.68981 36032 ft 439 kts 283°
2026-04-24 22:24 40.83539 49.61171 36030 ft 439 kts 282°
2026-04-24 22:25 40.84990 49.53352 36027 ft 439 kts 282°
2026-04-24 22:25 40.86440 49.45511 36019 ft 439 kts 282°
2026-04-24 22:26 40.87882 49.37671 36027 ft 439 kts 282°
2026-04-24 22:26 40.89288 49.29798 36030 ft 439 kts 281°
2026-04-24 22:27 40.90620 49.21914 36034 ft 439 kts 281°
2026-04-24 22:27 40.91949 49.14044 36035 ft 439 kts 281°
2026-04-24 22:28 40.93274 49.06171 36032 ft 439 kts 281°
2026-04-24 22:28 40.94600 48.98272 36030 ft 438 kts 281°
2026-04-24 22:29 40.96565 48.86500 36028 ft 436 kts 281°
2026-04-24 22:29 40.97863 48.78675 36028 ft 435 kts 281°
2026-04-24 22:30 40.99153 48.70870 36032 ft 434 kts 281°
2026-04-24 22:30 41.00442 48.63041 36028 ft 434 kts 281°
2026-04-24 22:31 41.01723 48.55220 36025 ft 433 kts 281°
2026-04-24 22:31 41.02999 48.47395 36028 ft 433 kts 281°
2026-04-24 22:32 41.04258 48.39642 36031 ft 432 kts 281°
2026-04-24 22:32 41.05523 48.31810 36052 ft 432 kts 280°
2026-04-24 22:33 41.06771 48.24054 36059 ft 432 kts 280°
2026-04-24 22:33 41.08017 48.16270 36073 ft 432 kts 280°
2026-04-24 22:34 41.09257 48.08491 36085 ft 432 kts 280°
2026-04-24 22:34 41.10499 48.00667 36089 ft 431 kts 279°
2026-04-24 22:35 41.11731 47.92870 36094 ft 431 kts 279°
2026-04-24 22:35 41.12952 47.85111 36094 ft 431 kts 279°
2026-04-24 22:36 41.14174 47.77307 36088 ft 431 kts 280°
2026-04-24 22:36 41.15390 47.69501 36088 ft 431 kts 279°
2026-04-24 22:37 41.16598 47.61713 36088 ft 430 kts 279°
2026-04-24 22:37 41.17804 47.53903 36088 ft 430 kts 279°
2026-04-24 22:38 41.19002 47.46111 36087 ft 430 kts 279°
2026-04-24 22:38 41.20201 47.38270 36083 ft 430 kts 279°
2026-04-24 22:39 41.21382 47.30507 36094 ft 430 kts 279°
2026-04-24 22:39 41.22563 47.22714 36097 ft 430 kts 279°
2026-04-24 22:40 41.23735 47.14941 36099 ft 430 kts 279°
2026-04-24 22:40 41.24907 47.07123 36097 ft 431 kts 279°
2026-04-24 22:41 41.26077 46.99289 36096 ft 431 kts 279°
2026-04-24 22:41 41.27233 46.91503 36093 ft 429 kts 279°
2026-04-24 22:42 41.28379 46.83757 36097 ft 427 kts 279°
2026-04-24 22:42 41.29515 46.76036 36092 ft 424 kts 278°
2026-04-24 22:43 41.30611 46.68349 36086 ft 421 kts 278°
2026-04-24 22:43 41.31688 46.60655 36087 ft 420 kts 278°
2026-04-24 22:44 41.32749 46.53041 36087 ft 419 kts 278°
2026-04-24 22:44 41.33810 46.45404 36090 ft 418 kts 278°
2026-04-24 22:45 41.34864 46.37774 36081 ft 417 kts 278°
2026-04-24 22:45 41.35908 46.30183 36100 ft 417 kts 278°
2026-04-24 22:46 41.36949 46.22576 36095 ft 417 kts 278°
2026-04-24 22:46 41.37982 46.14981 36096 ft 417 kts 278°
2026-04-24 22:47 41.39012 46.07378 36097 ft 417 kts 278°
2026-04-24 22:47 41.40035 45.99784 36098 ft 418 kts 278°
2026-04-24 22:48 41.41053 45.92193 36096 ft 418 kts 278°
2026-04-24 22:48 41.42072 45.84547 36090 ft 418 kts 278°
2026-04-24 22:49 41.43084 45.76915 36101 ft 417 kts 278°
2026-04-24 22:49 41.44085 45.69327 36113 ft 417 kts 278°
2026-04-24 22:50 41.45089 45.61681 36117 ft 416 kts 278°
2026-04-24 22:50 41.46078 45.54102 36132 ft 416 kts 278°
2026-04-24 22:51 41.47066 45.46492 36128 ft 416 kts 278°
2026-04-24 22:51 41.48047 45.38893 36124 ft 415 kts 278°
2026-04-24 22:52 41.48846 45.31310 36142 ft 414 kts 274°
2026-04-24 22:52 41.49440 45.23658 36138 ft 415 kts 274°
2026-04-24 22:53 41.50044 45.16047 36138 ft 415 kts 274°
2026-04-24 22:53 41.50659 45.08347 36138 ft 416 kts 274°
2026-04-24 22:54 41.51271 45.00666 36135 ft 417 kts 274°
2026-04-24 22:54 41.51879 44.92997 36121 ft 418 kts 274°
2026-04-24 22:55 41.52488 44.85255 36113 ft 420 kts 273°
2026-04-24 22:55 41.53096 44.77480 36116 ft 421 kts 273°
2026-04-24 22:56 41.53683 44.69893 36113 ft 422 kts 274°
2026-04-24 22:56 41.54282 44.62095 36108 ft 423 kts 274°
2026-04-24 22:57 41.54878 44.54264 36110 ft 423 kts 274°
2026-04-24 22:57 41.55465 44.46491 36109 ft 423 kts 274°
2026-04-24 22:58 41.56051 44.38652 36106 ft 424 kts 273°
2026-04-24 22:58 41.56628 44.30862 36121 ft 424 kts 273°
2026-04-24 22:59 41.57203 44.23014 36124 ft 425 kts 273°
2026-04-24 23:00 41.58127 44.11218 36121 ft 425 kts 273°
2026-04-24 23:00 41.58741 44.03343 36127 ft 426 kts 273°
2026-04-24 23:01 41.59346 43.95512 36134 ft 426 kts 273°
2026-04-24 23:01 41.59949 43.87628 36136 ft 426 kts 273°
2026-04-24 23:02 41.60543 43.79783 36133 ft 426 kts 273°
2026-04-24 23:02 41.61136 43.71875 36132 ft 426 kts 273°
2026-04-24 23:03 41.61721 43.63997 36133 ft 426 kts 273°
2026-04-24 23:03 41.62300 43.56129 36133 ft 426 kts 273°
2026-04-24 23:04 41.62875 43.48243 36137 ft 426 kts 274°
2026-04-24 23:04 41.63445 43.40396 36132 ft 425 kts 274°
2026-04-24 23:05 41.64013 43.32515 36146 ft 425 kts 272°
2026-04-24 23:05 41.64573 43.24653 36145 ft 426 kts 273°
2026-04-24 23:06 41.65126 43.16819 36143 ft 426 kts 273°
2026-04-24 23:06 41.65677 43.08925 36144 ft 426 kts 273°
2026-04-24 23:07 41.66220 43.01080 36136 ft 425 kts 273°
2026-04-24 23:07 41.66759 42.93200 36136 ft 424 kts 273°
2026-04-24 23:08 41.67134 42.85395 36131 ft 422 kts 266°
2026-04-24 23:08 41.66565 42.77621 36133 ft 421 kts 264°
2026-04-24 23:09 41.65924 42.69834 36130 ft 420 kts 263°
2026-04-24 23:09 41.65281 42.62100 36133 ft 420 kts 263°
2026-04-24 23:10 41.64634 42.54374 36128 ft 419 kts 263°
2026-04-24 23:10 41.63977 42.46611 36128 ft 419 kts 263°
2026-04-24 23:11 41.63321 42.38918 36127 ft 419 kts 263°
2026-04-24 23:11 41.62656 42.31170 36140 ft 419 kts 263°
2026-04-24 23:12 41.61988 42.23465 36143 ft 419 kts 263°
2026-04-24 23:12 41.61315 42.15748 36140 ft 419 kts 263°
2026-04-24 23:13 41.60634 42.08010 36136 ft 420 kts 263°
2026-04-24 23:13 41.59948 42.00281 36137 ft 420 kts 263°
2026-04-24 23:14 41.59261 41.92586 36132 ft 420 kts 263°
2026-04-24 23:14 41.58565 41.84860 36135 ft 420 kts 263°
2026-04-24 23:15 41.57864 41.77134 36136 ft 420 kts 263°
2026-04-24 23:15 41.57156 41.69386 36132 ft 419 kts 263°
2026-04-24 23:16 41.56445 41.61668 36130 ft 419 kts 263°
2026-04-24 23:16 41.55729 41.53950 36132 ft 419 kts 263°
2026-04-24 23:17 41.54923 41.46273 36127 ft 419 kts 258°
2026-04-24 23:17 41.52921 41.39005 36127 ft 420 kts 249°
2026-04-24 23:18 41.50610 41.31862 36138 ft 421 kts 248°
2026-04-24 23:18 41.48270 41.24678 36142 ft 421 kts 248°
2026-04-24 23:19 41.45949 41.17563 36139 ft 422 kts 248°
2026-04-24 23:19 41.43605 41.10406 36138 ft 422 kts 249°
2026-04-24 23:20 41.41253 41.03262 36136 ft 422 kts 248°
2026-04-24 23:20 41.38888 40.96101 36135 ft 423 kts 248°
2026-04-24 23:21 41.36515 40.88934 36133 ft 423 kts 247°
2026-04-24 23:21 41.34149 40.81807 36134 ft 424 kts 246°
2026-04-24 23:22 41.31767 40.74653 36135 ft 425 kts 246°
2026-04-24 23:22 41.29362 40.67447 36139 ft 425 kts 246°
2026-04-24 23:23 41.26965 40.60282 36148 ft 425 kts 246°
2026-04-24 23:23 41.24565 40.53131 36150 ft 426 kts 246°
2026-04-24 23:24 41.22160 40.45976 36149 ft 426 kts 246°
2026-04-24 23:24 41.19733 40.38779 36147 ft 426 kts 246°
2026-04-24 23:25 41.17314 40.31614 36160 ft 426 kts 246°
2026-04-24 23:25 41.14883 40.24432 36161 ft 426 kts 246°
2026-04-24 23:26 41.12458 40.17283 36156 ft 427 kts 246°
2026-04-24 23:26 41.10010 40.10104 36153 ft 427 kts 245°
2026-04-24 23:27 41.07556 40.02922 36157 ft 428 kts 245°
2026-04-24 23:27 41.05088 39.95722 36157 ft 429 kts 245°
2026-04-24 23:28 41.02628 39.88561 36148 ft 430 kts 245°
2026-04-24 23:28 41.00465 39.81151 36147 ft 432 kts 255°
2026-04-24 23:29 41.00151 39.73212 36156 ft 441 kts 272°
2026-04-24 23:29 41.00910 39.65107 36155 ft 442 kts 273°
2026-04-24 23:30 41.01687 39.57011 36148 ft 443 kts 273°
2026-04-24 23:30 41.02452 39.48960 36142 ft 443 kts 273°
2026-04-24 23:31 41.03212 39.40880 36140 ft 442 kts 274°
2026-04-24 23:31 41.03968 39.32783 36158 ft 442 kts 273°
2026-04-24 23:32 41.04716 39.24703 36148 ft 442 kts 273°
2026-04-24 23:32 41.05454 39.16665 36154 ft 441 kts 273°
2026-04-24 23:33 41.06197 39.08579 36155 ft 441 kts 273°
2026-04-24 23:33 41.06943 39.00521 36155 ft 442 kts 273°
2026-04-24 23:34 41.07684 38.92444 36147 ft 443 kts 273°
2026-04-24 23:34 41.08420 38.84350 36153 ft 444 kts 273°
2026-04-24 23:35 41.09150 38.76262 36151 ft 445 kts 273°
2026-04-24 23:35 41.09880 38.68094 36151 ft 446 kts 273°
2026-04-24 23:36 41.10587 38.59920 36149 ft 447 kts 273°
2026-04-24 23:36 41.11270 38.51811 36146 ft 447 kts 273°
2026-04-24 23:37 41.11956 38.43599 36148 ft 447 kts 273°
2026-04-24 23:37 41.12967 38.31358 36159 ft 447 kts 272°
2026-04-24 23:38 41.13638 38.23166 36161 ft 448 kts 272°
2026-04-24 23:38 41.14312 38.14946 36160 ft 449 kts 272°
2026-04-24 23:39 41.14976 38.06760 36153 ft 449 kts 272°
2026-04-24 23:39 41.15636 37.98552 36155 ft 449 kts 272°
2026-04-24 23:40 41.16292 37.90314 36152 ft 449 kts 272°
2026-04-24 23:40 41.16974 37.82090 36147 ft 449 kts 273°
2026-04-24 23:41 41.17677 37.73863 36149 ft 449 kts 273°
2026-04-24 23:41 41.18372 37.65629 36151 ft 449 kts 273°
2026-04-24 23:42 41.18964 37.57455 36154 ft 447 kts 270°
2026-04-24 23:42 41.19459 37.49231 36152 ft 448 kts 272°
2026-04-24 23:43 41.20076 37.41009 36151 ft 448 kts 272°
2026-04-24 23:43 41.20690 37.32739 36151 ft 448 kts 272°
2026-04-24 23:44 41.21291 37.24560 36142 ft 449 kts 272°
2026-04-24 23:44 41.21917 37.16318 36137 ft 449 kts 272°
2026-04-24 23:45 41.22563 37.08047 36130 ft 450 kts 272°
2026-04-24 23:45 41.23200 36.99786 36130 ft 451 kts 273°
2026-04-24 23:46 41.23830 36.91533 36134 ft 452 kts 273°
2026-04-24 23:46 41.24457 36.83230 36135 ft 453 kts 273°
2026-04-24 23:47 41.25077 36.74928 36138 ft 454 kts 273°
2026-04-24 23:47 41.25696 36.66568 36130 ft 454 kts 273°
2026-04-24 23:48 41.26305 36.58254 36127 ft 454 kts 273°
2026-04-24 23:48 41.27771 36.50057 36132 ft 459 kts 285°
2026-04-24 23:49 41.29821 36.42043 36128 ft 460 kts 285°
2026-04-24 23:49 41.31871 36.34007 36132 ft 460 kts 285°
2026-04-24 23:50 41.33905 36.25999 36136 ft 460 kts 285°
2026-04-24 23:50 41.35947 36.17926 36135 ft 460 kts 285°
2026-04-24 23:51 41.37981 36.09860 36136 ft 461 kts 285°
2026-04-24 23:51 41.40009 36.01780 36135 ft 461 kts 285°
2026-04-24 23:52 41.42022 35.93735 36138 ft 461 kts 285°
2026-04-24 23:52 41.44041 35.85641 36136 ft 461 kts 285°
2026-04-24 23:53 41.46046 35.77572 36134 ft 461 kts 285°
2026-04-24 23:53 41.48053 35.69467 36134 ft 461 kts 285°
2026-04-24 23:54 41.50056 35.61354 36135 ft 461 kts 285°
2026-04-24 23:54 41.52044 35.53269 36133 ft 461 kts 285°
2026-04-24 23:55 41.54039 35.45129 36132 ft 461 kts 285°
2026-04-24 23:55 41.56012 35.37052 36131 ft 460 kts 285°
2026-04-24 23:56 41.57994 35.28908 36140 ft 460 kts 284°
2026-04-24 23:56 41.59958 35.20807 36137 ft 461 kts 284°
2026-04-24 23:57 41.61925 35.12670 36137 ft 461 kts 284°
2026-04-24 23:57 41.63880 35.04551 36137 ft 461 kts 284°
2026-04-24 23:58 41.65837 34.96396 36136 ft 461 kts 284°
2026-04-24 23:58 41.67787 34.88242 36134 ft 461 kts 284°
2026-04-24 23:59 41.69735 34.80064 36135 ft 462 kts 284°
2026-04-24 23:59 41.71668 34.71924 36135 ft 462 kts 284°
2026-04-25 00:00 41.73605 34.63737 36134 ft 462 kts 284°
2026-04-25 00:00 41.75539 34.55529 36133 ft 462 kts 284°
2026-04-25 00:01 41.77460 34.47353 36139 ft 462 kts 284°
2026-04-25 00:01 41.79384 34.39133 36135 ft 463 kts 284°
2026-04-25 00:02 41.81293 34.30941 36141 ft 463 kts 283°
2026-04-25 00:02 41.83214 34.22673 36139 ft 463 kts 283°
2026-04-25 00:03 41.85109 34.14483 36137 ft 463 kts 283°
2026-04-25 00:03 41.87013 34.06231 36143 ft 463 kts 283°
2026-04-25 00:04 41.88905 33.97993 36138 ft 463 kts 283°
2026-04-25 00:04 41.90793 33.89745 36139 ft 463 kts 283°
2026-04-25 00:05 41.92674 33.81496 36137 ft 463 kts 283°
2026-04-25 00:05 41.94554 33.73221 36135 ft 463 kts 283°
2026-04-25 00:06 41.96296 33.64949 36138 ft 462 kts 281°
2026-04-25 00:06 41.97879 33.56616 36134 ft 462 kts 281°
2026-04-25 00:07 41.99468 33.48276 36133 ft 462 kts 281°
2026-04-25 00:07 42.01057 33.39933 36134 ft 462 kts 281°
2026-04-25 00:08 42.02649 33.31560 36143 ft 462 kts 281°
2026-04-25 00:08 42.04227 33.23231 36142 ft 462 kts 281°
2026-04-25 00:09 42.05806 33.14865 36140 ft 462 kts 281°
2026-04-25 00:09 42.07381 33.06506 36140 ft 462 kts 281°
2026-04-25 00:10 42.09088 32.98172 36142 ft 463 kts 282°
2026-04-25 00:10 42.10802 32.89830 36134 ft 463 kts 282°
2026-04-25 00:11 42.12507 32.81478 36134 ft 464 kts 282°
2026-04-25 00:11 42.14211 32.73082 36131 ft 463 kts 282°
2026-04-25 00:12 42.15888 32.64778 36131 ft 463 kts 282°
2026-04-25 00:12 42.17575 32.56381 36131 ft 463 kts 282°
2026-04-25 00:13 42.19243 32.48037 36130 ft 463 kts 282°
2026-04-25 00:13 42.20908 32.39664 36127 ft 463 kts 282°
2026-04-25 00:14 42.22571 32.31269 36137 ft 463 kts 282°
2026-04-25 00:14 42.24222 32.22900 36138 ft 463 kts 282°
2026-04-25 00:15 42.25865 32.14514 36135 ft 463 kts 282°
2026-04-25 00:15 42.27500 32.06144 36135 ft 464 kts 282°
2026-04-25 00:16 42.29148 31.97712 36129 ft 464 kts 282°
2026-04-25 00:16 42.30777 31.89333 36129 ft 464 kts 282°
2026-04-25 00:17 42.32407 31.80921 36122 ft 464 kts 282°
2026-04-25 00:17 42.34033 31.72483 36116 ft 464 kts 282°
2026-04-25 00:18 42.35649 31.64068 36111 ft 464 kts 282°
2026-04-25 00:18 42.37250 31.55692 36109 ft 464 kts 282°
2026-04-25 00:19 42.38858 31.47245 36110 ft 463 kts 282°
2026-04-25 00:19 42.40450 31.38840 36111 ft 463 kts 282°
2026-04-25 00:20 42.42042 31.30401 36119 ft 464 kts 281°
2026-04-25 00:20 42.43631 31.21942 36114 ft 464 kts 281°
2026-04-25 00:21 42.45203 31.13534 36117 ft 464 kts 281°
2026-04-25 00:21 42.46786 31.05025 36116 ft 465 kts 281°
2026-04-25 00:22 42.48356 30.96535 36115 ft 467 kts 281°
2026-04-25 00:22 42.49925 30.88018 36115 ft 469 kts 281°
2026-04-25 00:23 42.51491 30.79474 36114 ft 470 kts 281°
2026-04-25 00:23 42.53066 30.70847 36114 ft 471 kts 281°
2026-04-25 00:24 42.54619 30.62299 36114 ft 471 kts 281°
2026-04-25 00:24 42.56180 30.53667 36113 ft 472 kts 281°
2026-04-25 00:25 42.57737 30.45019 36113 ft 472 kts 281°
2026-04-25 00:25 42.59277 30.36418 36112 ft 472 kts 281°
2026-04-25 00:26 42.60557 30.30053 36116 ft 475 kts 287°
2026-04-25 00:26 42.63657 30.22469 36116 ft 484 kts 304°
2026-04-25 00:27 42.68111 30.15569 36114 ft 487 kts 308°
2026-04-25 00:27 42.72605 30.08759 36107 ft 487 kts 308°
2026-04-25 00:28 42.77101 30.01904 36100 ft 487 kts 308°
2026-04-25 00:28 42.81595 29.95021 36096 ft 487 kts 308°
2026-04-25 00:29 42.86063 29.88154 36096 ft 487 kts 308°
2026-04-25 00:29 42.90549 29.81238 36096 ft 487 kts 308°
2026-04-25 00:30 42.94996 29.74363 36095 ft 485 kts 308°
2026-04-25 00:30 42.99443 29.67471 36092 ft 482 kts 309°
2026-04-25 00:31 43.03848 29.60629 36092 ft 480 kts 309°
2026-04-25 00:31 43.08228 29.53808 36092 ft 478 kts 309°
2026-04-25 00:32 43.12584 29.47009 36090 ft 477 kts 309°
2026-04-25 00:32 43.16952 29.40174 36089 ft 476 kts 309°
2026-04-25 00:33 43.21297 29.33360 36094 ft 476 kts 309°
2026-04-25 00:33 43.25647 29.26521 36096 ft 476 kts 309°
2026-04-25 00:34 43.29965 29.19716 36093 ft 476 kts 309°
2026-04-25 00:34 43.34295 29.12877 36093 ft 476 kts 309°
2026-04-25 00:35 43.38637 29.06002 36095 ft 476 kts 309°
2026-04-25 00:35 43.42948 28.99159 36092 ft 476 kts 309°
2026-04-25 00:36 43.47265 28.92292 36089 ft 477 kts 309°
2026-04-25 00:36 43.51602 28.85376 36094 ft 479 kts 309°
2026-04-25 00:37 43.55943 28.78435 36095 ft 480 kts 309°
2026-04-25 00:37 43.60291 28.71469 36083 ft 482 kts 309°
2026-04-25 00:38 43.64669 28.64437 36087 ft 483 kts 309°
2026-04-25 00:38 43.69012 28.57445 36094 ft 483 kts 309°
2026-04-25 00:39 43.73217 28.50274 36086 ft 481 kts 301°
2026-04-25 00:39 43.76360 28.42157 36088 ft 479 kts 295°
2026-04-25 00:40 43.79330 28.33940 36090 ft 480 kts 294°
2026-04-25 00:40 43.82293 28.25687 36092 ft 480 kts 294°
2026-04-25 00:41 43.85252 28.17403 36089 ft 480 kts 294°
2026-04-25 00:41 43.88197 28.09121 36082 ft 481 kts 294°
2026-04-25 00:42 43.91151 28.00784 36082 ft 481 kts 294°
2026-04-25 00:42 43.94087 27.92470 36092 ft 481 kts 294°
2026-04-25 00:43 43.96997 27.84202 36091 ft 480 kts 294°
2026-04-25 00:43 43.99914 27.75890 36091 ft 480 kts 294°
2026-04-25 00:44 44.02841 27.67524 36089 ft 480 kts 294°
2026-04-25 00:44 44.05732 27.59234 36078 ft 480 kts 294°
2026-04-25 00:45 44.08632 27.50895 36077 ft 480 kts 294°
2026-04-25 00:45 44.11526 27.42545 36075 ft 480 kts 294°
2026-04-25 00:46 44.14425 27.34155 36073 ft 480 kts 294°
2026-04-25 00:47 44.18745 27.21605 36082 ft 480 kts 294°
2026-04-25 00:47 44.21606 27.13259 36092 ft 480 kts 294°
2026-04-25 00:48 44.24487 27.04832 36094 ft 480 kts 294°
2026-04-25 00:48 44.27349 26.96433 36093 ft 481 kts 294°
2026-04-25 00:49 44.30193 26.88061 36103 ft 481 kts 294°
2026-04-25 00:49 44.33060 26.79593 36096 ft 482 kts 294°
2026-04-25 00:50 44.35903 26.71168 36096 ft 482 kts 294°
2026-04-25 00:50 44.38750 26.62711 36089 ft 482 kts 294°
2026-04-25 00:51 44.41598 26.54218 36093 ft 482 kts 294°
2026-04-25 00:51 44.44411 26.45804 36101 ft 482 kts 294°
2026-04-25 00:52 44.47249 26.37288 36096 ft 482 kts 294°
2026-04-25 00:52 44.50068 26.28805 36098 ft 482 kts 293°
2026-04-25 00:53 44.52887 26.20292 36094 ft 482 kts 293°
2026-04-25 00:53 44.55689 26.11805 36089 ft 483 kts 293°
2026-04-25 00:54 44.58499 26.03263 36084 ft 483 kts 293°
2026-04-25 00:54 44.61301 25.94720 36089 ft 482 kts 293°
2026-04-25 00:55 44.64080 25.86218 36095 ft 482 kts 293°
2026-04-25 00:55 44.66869 25.77660 36093 ft 482 kts 293°
2026-04-25 00:56 44.69644 25.69120 36090 ft 482 kts 293°
2026-04-25 00:56 44.72412 25.60570 36087 ft 482 kts 293°
2026-04-25 00:57 44.75178 25.51998 36095 ft 482 kts 293°
2026-04-25 00:57 44.77939 25.43414 36093 ft 482 kts 293°
2026-04-25 00:58 44.80691 25.34830 36089 ft 482 kts 292°
2026-04-25 00:58 44.83438 25.26231 36088 ft 482 kts 292°
2026-04-25 00:59 44.86183 25.17613 36091 ft 482 kts 292°
2026-04-25 00:59 44.88901 25.09052 36094 ft 481 kts 292°
2026-04-25 01:00 44.91631 25.00423 36095 ft 481 kts 292°
2026-04-25 01:00 44.94334 24.91851 36093 ft 481 kts 292°
2026-04-25 01:01 44.97053 24.83200 36100 ft 480 kts 292°
2026-04-25 01:01 44.99745 24.74607 36101 ft 480 kts 292°
2026-04-25 01:02 45.02420 24.66039 36093 ft 479 kts 291°
2026-04-25 01:02 45.05087 24.57468 36099 ft 478 kts 291°
2026-04-25 01:03 45.07763 24.48837 36094 ft 477 kts 291°
2026-04-25 01:03 45.10418 24.40246 36093 ft 476 kts 291°
2026-04-25 01:04 45.13054 24.31689 36097 ft 474 kts 291°
2026-04-25 01:04 45.15678 24.23142 36096 ft 474 kts 290°
2026-04-25 01:05 45.18298 24.14581 36093 ft 473 kts 290°
2026-04-25 01:05 45.20904 24.06031 36092 ft 473 kts 290°
2026-04-25 01:06 45.23500 23.97491 36094 ft 473 kts 291°
2026-04-25 01:06 45.26084 23.88960 36094 ft 473 kts 291°
2026-04-25 01:07 45.28663 23.80416 36093 ft 473 kts 290°
2026-04-25 01:07 45.31249 23.71821 36090 ft 473 kts 290°
2026-04-25 01:08 45.33815 23.63262 36097 ft 473 kts 290°
2026-04-25 01:08 45.36376 23.54692 36089 ft 473 kts 291°
2026-04-25 01:09 45.38931 23.46114 36092 ft 473 kts 290°
2026-04-25 01:09 45.41481 23.37520 36089 ft 473 kts 290°
2026-04-25 01:10 45.44041 23.28866 36095 ft 473 kts 290°
2026-04-25 01:10 45.46579 23.20256 36097 ft 473 kts 290°
2026-04-25 01:11 45.49099 23.11677 36093 ft 473 kts 290°
2026-04-25 01:11 45.51638 23.03001 36099 ft 473 kts 290°
2026-04-25 01:12 45.54152 22.94380 36092 ft 471 kts 291°
2026-04-25 01:12 45.56649 22.85789 36094 ft 469 kts 293°
2026-04-25 01:13 45.59123 22.77251 36096 ft 470 kts 294°
2026-04-25 01:13 45.61618 22.68609 36093 ft 470 kts 294°
2026-04-25 01:14 45.64106 22.59961 36090 ft 471 kts 294°
2026-04-25 01:14 45.66577 22.51340 36095 ft 471 kts 294°
2026-04-25 01:15 45.69052 22.42677 36089 ft 471 kts 294°
2026-04-25 01:15 45.71506 22.34058 36088 ft 471 kts 293°
2026-04-25 01:16 45.73969 22.25376 36096 ft 471 kts 293°
2026-04-25 01:16 45.76435 22.16648 36095 ft 471 kts 293°
2026-04-25 01:17 45.78867 22.08011 36095 ft 471 kts 293°
2026-04-25 01:17 45.81314 21.99292 36094 ft 471 kts 293°
2026-04-25 01:18 45.83749 21.90585 36093 ft 471 kts 293°
2026-04-25 01:18 45.86178 21.81865 36095 ft 472 kts 293°
2026-04-25 01:19 45.88591 21.73176 36090 ft 471 kts 293°
2026-04-25 01:19 45.91014 21.64417 36087 ft 471 kts 293°
2026-04-25 01:20 45.93412 21.55714 36091 ft 471 kts 293°
2026-04-25 01:20 45.95816 21.46960 36091 ft 471 kts 293°
2026-04-25 01:21 45.98198 21.38256 36090 ft 471 kts 293°
2026-04-25 01:21 46.00592 21.29472 36095 ft 471 kts 292°
2026-04-25 01:22 46.02970 21.20720 36090 ft 472 kts 292°
2026-04-25 01:22 46.05343 21.11951 36089 ft 472 kts 292°
2026-04-25 01:23 46.07714 21.03154 36091 ft 471 kts 293°
2026-04-25 01:23 46.10052 20.94450 36089 ft 468 kts 294°
2026-04-25 01:24 46.12399 20.85678 36099 ft 466 kts 295°
2026-04-25 01:24 46.14713 20.77001 36098 ft 464 kts 295°
2026-04-25 01:25 46.16970 20.68308 36098 ft 464 kts 294°
2026-04-25 01:25 46.19139 20.59548 36097 ft 464 kts 294°
2026-04-25 01:26 46.21293 20.50801 36096 ft 464 kts 294°
2026-04-25 01:26 46.23447 20.42018 36096 ft 464 kts 294°
2026-04-25 01:27 46.25588 20.33253 36096 ft 464 kts 293°
2026-04-25 01:27 46.27722 20.24478 36097 ft 464 kts 293°
2026-04-25 01:28 46.30915 20.11283 36097 ft 464 kts 293°
2026-04-25 01:28 46.33035 20.02483 36097 ft 464 kts 293°
2026-04-25 01:29 46.35149 19.93668 36096 ft 464 kts 293°
2026-04-25 01:29 46.37250 19.84874 36096 ft 464 kts 293°
2026-04-25 01:30 46.39343 19.76078 36095 ft 464 kts 293°
2026-04-25 01:30 46.41445 19.67209 36095 ft 464 kts 293°
2026-04-25 01:31 46.43525 19.58397 36094 ft 464 kts 293°
2026-04-25 01:31 46.45602 19.49562 36093 ft 464 kts 293°
2026-04-25 01:32 46.47672 19.40722 36093 ft 464 kts 293°
2026-04-25 01:32 46.49736 19.31870 36095 ft 464 kts 292°
2026-04-25 01:33 46.51801 19.22982 36095 ft 464 kts 292°
2026-04-25 01:33 46.53848 19.14126 36096 ft 463 kts 293°
2026-04-25 01:34 46.55875 19.05319 36095 ft 458 kts 294°
2026-04-25 01:34 46.57864 18.96642 36093 ft 451 kts 295°
2026-04-25 01:35 46.59832 18.88029 36096 ft 446 kts 296°
2026-04-25 01:35 46.61776 18.79496 36102 ft 444 kts 296°
2026-04-25 01:36 46.63697 18.71025 36109 ft 443 kts 296°
2026-04-25 01:36 46.65621 18.62505 36110 ft 442 kts 296°
2026-04-25 01:37 46.67519 18.54070 36109 ft 442 kts 296°
2026-04-25 01:37 46.69427 18.45551 36108 ft 442 kts 296°
2026-04-25 01:38 46.71323 18.37055 36107 ft 441 kts 296°
2026-04-25 01:38 46.73204 18.28589 36112 ft 442 kts 295°
2026-04-25 01:39 46.75082 18.20104 36111 ft 442 kts 295°
2026-04-25 01:39 46.76963 18.11573 36110 ft 442 kts 295°
2026-04-25 01:40 46.78840 18.03022 36109 ft 442 kts 295°
2026-04-25 01:40 46.80699 17.94517 36108 ft 442 kts 295°
2026-04-25 01:41 46.82563 17.85956 36107 ft 442 kts 295°
2026-04-25 01:41 46.84411 17.77432 36106 ft 442 kts 295°
2026-04-25 01:42 46.86252 17.68907 36105 ft 442 kts 295°
2026-04-25 01:42 46.88098 17.60326 36104 ft 442 kts 295°
2026-04-25 01:43 46.89922 17.51808 36104 ft 442 kts 295°
2026-04-25 01:43 46.91750 17.43237 36103 ft 441 kts 295°
2026-04-25 01:44 46.93568 17.34678 36102 ft 441 kts 294°
2026-04-25 01:44 46.95379 17.26116 36107 ft 441 kts 294°
2026-04-25 01:45 46.97182 17.17555 36107 ft 441 kts 294°
2026-04-25 01:45 46.98978 17.08987 36106 ft 441 kts 294°
2026-04-25 01:46 47.00769 17.00412 36106 ft 440 kts 294°
2026-04-25 01:46 47.02534 16.91917 36103 ft 436 kts 294°
2026-04-25 01:47 47.04279 16.83479 36100 ft 428 kts 295°
2026-04-25 01:47 47.05983 16.75207 36097 ft 420 kts 295°
2026-04-25 01:48 47.07650 16.67099 36096 ft 416 kts 295°
2026-04-25 01:48 47.09307 16.59004 36095 ft 414 kts 295°
2026-04-25 01:49 47.10852 16.51424 36122 ft 413 kts 295°
2026-04-25 01:49 47.12529 16.43163 36129 ft 414 kts 295°
2026-04-25 01:50 47.14168 16.35058 36134 ft 414 kts 295°
2026-04-25 01:50 47.15851 16.26981 36148 ft 414 kts 295°
2026-04-25 01:51 47.17543 16.18900 36147 ft 415 kts 295°
2026-04-25 01:51 47.19221 16.10846 36146 ft 415 kts 295°
2026-04-25 01:52 47.20909 16.02701 36145 ft 415 kts 295°
2026-04-25 01:52 47.22580 15.94604 36143 ft 415 kts 295°
2026-04-25 01:53 47.24240 15.86524 36142 ft 415 kts 295°
2026-04-25 01:53 47.25907 15.78378 36141 ft 415 kts 295°
2026-04-25 01:54 47.27559 15.70270 36139 ft 415 kts 295°
2026-04-25 01:54 47.29208 15.62148 36138 ft 415 kts 295°
2026-04-25 01:55 47.30848 15.54036 36137 ft 414 kts 295°
2026-04-25 01:55 47.32486 15.45897 36135 ft 414 kts 295°
2026-04-25 01:56 47.34111 15.37791 36134 ft 414 kts 295°
2026-04-25 01:56 47.35739 15.29633 36143 ft 414 kts 295°
2026-04-25 01:57 47.38165 15.17419 36141 ft 415 kts 295°
2026-04-25 01:58 47.39774 15.09277 36140 ft 415 kts 295°
2026-04-25 01:58 47.41390 15.01064 36138 ft 416 kts 294°
2026-04-25 01:59 47.42992 14.92890 36137 ft 417 kts 293°
2026-04-25 01:59 47.44606 14.84613 36137 ft 419 kts 292°
2026-04-25 02:00 47.46208 14.76362 36142 ft 420 kts 292°
2026-04-25 02:00 47.47813 14.68063 36148 ft 420 kts 292°
2026-04-25 02:01 47.49414 14.59746 36152 ft 421 kts 292°
2026-04-25 02:01 47.51000 14.51470 36152 ft 421 kts 292°
2026-04-25 02:02 47.52583 14.43178 36150 ft 421 kts 292°
2026-04-25 02:02 47.54147 14.34944 36149 ft 421 kts 292°
2026-04-25 02:03 47.55747 14.26488 36158 ft 421 kts 292°
2026-04-25 02:03 47.57315 14.18167 36157 ft 422 kts 292°
2026-04-25 02:04 47.58881 14.09811 36156 ft 422 kts 292°
2026-04-25 02:04 47.60592 14.01567 36154 ft 416 kts 298°
2026-04-25 02:05 47.62921 13.93767 36153 ft 415 kts 299°
2026-04-25 02:05 47.65253 13.85979 36155 ft 415 kts 299°
2026-04-25 02:06 47.67584 13.78150 36160 ft 415 kts 299°
2026-04-25 02:06 47.69907 13.70313 36164 ft 415 kts 299°
2026-04-25 02:07 47.72208 13.62516 36165 ft 414 kts 299°
2026-04-25 02:07 47.74508 13.54698 36163 ft 414 kts 299°
2026-04-25 02:08 47.76805 13.46864 36164 ft 414 kts 299°
2026-04-25 02:08 47.79089 13.39048 36164 ft 414 kts 299°
2026-04-25 02:09 47.81087 13.32188 36173 ft 414 kts 298°
2026-04-25 02:09 47.83309 13.23390 36170 ft 422 kts 290°
2026-04-25 02:10 47.84210 13.16692 36172 ft 425 kts 288°
2026-04-25 02:10 47.85288 13.08143 36170 ft 420 kts 287°
2026-04-25 02:11 47.86350 12.99670 36170 ft 417 kts 286°
2026-04-25 02:11 47.87401 12.91227 36169 ft 414 kts 286°
2026-04-25 02:12 47.88445 12.82794 36168 ft 412 kts 286°
2026-04-25 02:12 47.89469 12.74463 36167 ft 409 kts 286°
2026-04-25 02:13 47.90484 12.66161 36166 ft 408 kts 286°
2026-04-25 02:13 47.91486 12.57918 36165 ft 406 kts 286°
2026-04-25 02:14 47.92483 12.49651 36163 ft 404 kts 286°
2026-04-25 02:14 47.93473 12.41398 36162 ft 403 kts 286°
2026-04-25 02:15 47.94447 12.33230 36170 ft 401 kts 285°
2026-04-25 02:15 47.95417 12.25038 36172 ft 401 kts 285°
2026-04-25 02:16 47.96375 12.16900 36171 ft 400 kts 285°
2026-04-25 02:16 47.97334 12.08702 36170 ft 399 kts 286°
2026-04-25 02:17 47.98265 12.00693 36169 ft 399 kts 285°
2026-04-25 02:17 47.99209 11.92519 36168 ft 398 kts 285°
2026-04-25 02:18 48.00135 11.84447 36167 ft 397 kts 285°
2026-04-25 02:18 48.01064 11.76302 36165 ft 397 kts 285°
2026-04-25 02:19 48.01983 11.68182 36164 ft 396 kts 285°
2026-04-25 02:19 48.02896 11.60064 36163 ft 396 kts 285°
2026-04-25 02:20 48.03797 11.52007 36162 ft 395 kts 285°
2026-04-25 02:20 48.04693 11.43943 36161 ft 394 kts 286°
2026-04-25 02:21 48.05579 11.35904 36159 ft 394 kts 286°
2026-04-25 02:21 48.06464 11.27825 36170 ft 393 kts 285°
2026-04-25 02:22 48.07344 11.19741 36170 ft 393 kts 285°
2026-04-25 02:22 48.08209 11.11739 36169 ft 393 kts 285°
2026-04-25 02:23 48.09075 11.03672 36167 ft 393 kts 285°
2026-04-25 02:23 48.09939 10.95576 36167 ft 393 kts 284°
2026-04-25 02:24 48.10778 10.87654 36181 ft 394 kts 283°
2026-04-25 02:24 48.11629 10.79573 36180 ft 394 kts 283°
2026-04-25 02:25 48.12475 10.71467 36179 ft 395 kts 283°
2026-04-25 02:25 48.13314 10.63380 36177 ft 396 kts 283°
2026-04-25 02:26 48.14153 10.55240 36176 ft 396 kts 283°
2026-04-25 02:26 48.14982 10.47124 36175 ft 396 kts 283°
2026-04-25 02:27 48.15813 10.38940 36174 ft 397 kts 283°
2026-04-25 02:27 48.16564 10.31486 36185 ft 397 kts 282°
2026-04-25 02:28 48.17365 10.23481 36185 ft 398 kts 282°
2026-04-25 02:28 48.18175 10.15330 36184 ft 399 kts 282°
2026-04-25 02:29 48.18988 10.07086 36183 ft 399 kts 282°
2026-04-25 02:29 48.19790 9.98888 36181 ft 400 kts 282°
2026-04-25 02:30 48.20589 9.90662 36180 ft 400 kts 282°
2026-04-25 02:30 48.21386 9.82391 36179 ft 400 kts 282°
2026-04-25 02:31 48.22173 9.74164 36178 ft 401 kts 282°
2026-04-25 02:31 48.22863 9.65894 36179 ft 402 kts 278°
2026-04-25 02:32 48.23209 9.57486 36175 ft 403 kts 278°
2026-04-25 02:32 48.23537 9.49121 36174 ft 403 kts 278°
2026-04-25 02:33 48.23858 9.40793 36173 ft 403 kts 278°
2026-04-25 02:33 48.24153 9.33017 36180 ft 403 kts 278°
2026-04-25 02:34 48.24475 9.24337 36183 ft 403 kts 278°
2026-04-25 02:34 48.24780 9.15980 36183 ft 404 kts 278°
2026-04-25 02:35 48.25081 9.07556 36181 ft 404 kts 277°
2026-04-25 02:35 48.25374 8.99173 36180 ft 404 kts 276°
2026-04-25 02:36 48.25663 8.90737 36178 ft 405 kts 276°
2026-04-25 02:36 48.25945 8.82319 36177 ft 405 kts 276°
2026-04-25 02:37 48.26220 8.73937 36176 ft 405 kts 276°
2026-04-25 02:37 48.26490 8.65511 36175 ft 405 kts 276°
2026-04-25 02:38 48.26754 8.57051 36174 ft 404 kts 276°
2026-04-25 02:38 48.27010 8.48682 36172 ft 404 kts 276°
2026-04-25 02:39 48.27262 8.40242 36171 ft 404 kts 276°
2026-04-25 02:39 48.27507 8.31838 36183 ft 404 kts 275°
2026-04-25 02:40 48.27746 8.23416 36182 ft 404 kts 275°
2026-04-25 02:40 48.27979 8.14981 36181 ft 405 kts 275°
2026-04-25 02:41 48.28205 8.06572 36180 ft 405 kts 275°
2026-04-25 02:41 48.28425 7.98174 36179 ft 405 kts 275°
2026-04-25 02:42 48.28640 7.89734 36178 ft 405 kts 275°
2026-04-25 02:42 48.28849 7.81284 36177 ft 405 kts 275°
2026-04-25 02:43 48.29052 7.72814 36175 ft 405 kts 275°
2026-04-25 02:43 48.29248 7.64398 36174 ft 405 kts 275°
2026-04-25 02:44 48.29438 7.55955 36173 ft 405 kts 275°
2026-04-25 02:44 48.29620 7.47564 36186 ft 404 kts 275°
2026-04-25 02:45 48.29798 7.39103 36191 ft 404 kts 275°
2026-04-25 02:45 48.29969 7.30683 36203 ft 404 kts 274°
2026-04-25 02:46 48.30135 7.22261 36202 ft 404 kts 274°
2026-04-25 02:46 48.30293 7.13847 36201 ft 405 kts 274°
2026-04-25 02:47 48.30447 7.05407 36198 ft 405 kts 274°
2026-04-25 02:47 48.30593 6.96972 36196 ft 406 kts 273°
2026-04-25 02:48 48.30734 6.88501 36196 ft 406 kts 273°
2026-04-25 02:48 48.30869 6.80013 36195 ft 406 kts 273°
2026-04-25 02:49 48.30998 6.71538 36194 ft 407 kts 273°
2026-04-25 02:49 48.31120 6.63060 36193 ft 407 kts 273°
2026-04-25 02:50 48.31236 6.54616 36192 ft 407 kts 273°
2026-04-25 02:50 48.31347 6.46091 36191 ft 407 kts 273°
2026-04-25 02:51 48.31450 6.37631 36190 ft 407 kts 273°
2026-04-25 02:51 48.31549 6.29104 36201 ft 407 kts 272°
2026-04-25 02:52 48.31640 6.20620 36201 ft 408 kts 272°
2026-04-25 02:52 48.31725 6.12135 36200 ft 408 kts 272°
2026-04-25 02:53 48.31728 6.03612 36201 ft 409 kts 270°
2026-04-25 02:53 48.31535 5.95101 36198 ft 409 kts 270°
2026-04-25 02:54 48.31332 5.86584 36197 ft 410 kts 270°
2026-04-25 02:54 48.31123 5.78065 36196 ft 410 kts 270°
2026-04-25 02:55 48.30907 5.69533 36195 ft 410 kts 270°
2026-04-25 02:55 48.30684 5.60974 36194 ft 410 kts 270°
2026-04-25 02:56 48.30455 5.52419 36193 ft 410 kts 270°
2026-04-25 02:56 48.30220 5.43914 36192 ft 409 kts 270°
2026-04-25 02:57 48.29980 5.35407 36191 ft 409 kts 270°
2026-04-25 02:57 48.29735 5.26944 36202 ft 410 kts 269°
2026-04-25 02:58 48.29480 5.18424 36200 ft 410 kts 268°
2026-04-25 02:58 48.28317 5.10046 36203 ft 415 kts 257°
2026-04-25 02:59 48.26676 5.01772 36199 ft 415 kts 257°
2026-04-25 02:59 48.24933 4.93514 36193 ft 418 kts 250°
2026-04-25 03:00 48.21743 4.86197 36194 ft 430 kts 231°
2026-04-25 03:00 48.16884 4.80737 36200 ft 443 kts 216°
2026-04-25 03:01 48.11455 4.76354 36195 ft 444 kts 214°
2026-04-25 03:01 48.06023 4.72013 36195 ft 444 kts 215°
2026-04-25 03:02 48.00503 4.68011 36192 ft 452 kts 205°
2026-04-25 03:02 47.94333 4.65723 36185 ft 458 kts 200°
2026-04-25 03:03 47.50205 4.51267 36037 ft 459 kts 200°
2026-04-25 03:03 47.32108 4.45392 36379 ft 459 kts 200°
2026-04-25 03:03 47.28983 4.44373 36172 ft 464 kts 200°
2026-04-25 03:04 47.22732 4.42031 36155 ft 457 kts 205°
2026-04-25 03:04 47.16702 4.39152 36149 ft 457 kts 205°
2026-04-25 03:05 46.79559 4.21525 36282 ft 457 kts 207°
2026-04-25 03:05 46.55337 4.10159 35917 ft 460 kts 207°
2026-04-25 03:06 46.43282 4.04545 36461 ft 457 kts 207°
2026-04-25 03:06 46.31093 3.98888 35921 ft 460 kts 206°
2026-04-25 03:06 46.19018 3.93322 36281 ft 459 kts 207°
2026-04-25 03:06 46.06840 3.87723 36231 ft 459 kts 206°
2026-04-25 03:07 45.94622 3.82138 35939 ft 461 kts 207°
2026-04-25 03:07 45.82495 3.76620 36441 ft 459 kts 207°
2026-04-25 03:07 45.70285 3.71084 35898 ft 462 kts 206°
2026-04-25 03:07 45.57975 3.65539 36283 ft 460 kts 207°
2026-04-25 03:08 45.33545 3.54595 35930 ft 462 kts 207°
2026-04-25 03:08 45.21299 3.49149 36432 ft 459 kts 207°
2026-04-25 03:08 45.09095 3.43740 35871 ft 462 kts 206°
2026-04-25 03:09 44.96779 3.38314 36290 ft 460 kts 205°
2026-04-25 03:09 44.84771 3.33038 36180 ft 461 kts 205°
2026-04-25 03:09 44.72581 3.27713 36057 ft 463 kts 205°
2026-04-25 03:09 44.60308 3.22374 36482 ft 461 kts 205°
2026-04-25 03:10 44.48019 3.17047 35918 ft 465 kts 205°
2026-04-25 03:10 44.35574 3.11685 36420 ft 463 kts 205°
2026-04-25 03:10 44.23302 3.06411 36166 ft 464 kts 205°
2026-04-25 03:10 44.11010 3.01161 36088 ft 465 kts 205°
2026-04-25 03:11 43.98450 2.95816 36474 ft 463 kts 204°
2026-04-25 03:11 43.86295 2.90663 35908 ft 466 kts 204°
2026-04-25 03:11 43.74017 2.84926 36405 ft 457 kts 210°
2026-04-25 03:11 43.62828 2.76984 36095 ft 448 kts 220°
2026-04-25 03:12 43.44745 2.54566 36411 ft 428 kts 238°
2026-04-25 03:12 43.38262 2.40892 35867 ft 425 kts 247°
2026-04-25 03:12 43.33794 2.26007 36451 ft 416 kts 255°
2026-04-25 03:13 43.31329 2.10572 35989 ft 416 kts 265°
2026-04-25 03:13 43.30994 1.94804 36202 ft 413 kts 274°
2026-04-25 03:13 43.32074 1.79069 36345 ft 412 kts 274°
2026-04-25 03:13 43.32894 1.63105 35887 ft 414 kts 274°
2026-04-25 03:14 43.33653 1.47954 36485 ft 411 kts 274°
2026-04-25 03:14 43.33844 1.44039 36239 ft 416 kts 272°
2026-04-25 03:14 43.33723 1.40050 35949 ft 423 kts 264°
2026-04-25 03:14 43.33102 1.36065 35206 ft 432 kts 255°
2026-04-25 03:15 43.31955 1.32199 34470 ft 443 kts 246°
2026-04-25 03:15 43.30323 1.28543 33404 ft 461 kts 238°
2026-04-25 03:15 43.28206 1.25156 32137 ft 479 kts 229°
2026-04-25 03:15 43.25642 1.22167 30868 ft 493 kts 221°
2026-04-25 03:16 43.22706 1.19710 29767 ft 502 kts 212°
2026-04-25 03:16 43.19471 1.17914 29242 ft 504 kts 203°
2026-04-25 03:16 43.12622 1.16520 29156 ft 501 kts 185°
2026-04-25 03:17 43.09174 1.16893 29020 ft 493 kts 177°
2026-04-25 03:17 43.05877 1.17913 28242 ft 483 kts 169°
2026-04-25 03:17 43.02768 1.19543 26790 ft 489 kts 160°
2026-04-25 03:17 42.99812 1.21829 25083 ft 498 kts 149°
2026-04-25 03:18 42.97113 1.24730 23370 ft 501 kts 140°
2026-04-25 03:18 42.94663 1.27984 21679 ft 498 kts 137°
2026-04-25 03:18 42.92201 1.31236 19969 ft 489 kts 141°
2026-04-25 03:18 42.89546 1.33953 18286 ft 476 kts 150°
2026-04-25 03:19 42.86698 1.36000 16608 ft 462 kts 159°
2026-04-25 03:19 42.83740 1.37397 14936 ft 448 kts 165°
2026-04-25 03:19 42.80829 1.38549 13286 ft 436 kts 165°
2026-04-25 03:19 42.78115 1.39595 12189 ft 413 kts 165°
2026-04-25 03:20 42.75464 1.40601 11621 ft 381 kts 167°
2026-04-25 03:20 42.72925 1.41102 11061 ft 353 kts 181°
2026-04-25 03:20 42.70565 1.40688 10485 ft 340 kts 198°
2026-04-25 03:20 42.68540 1.39239 10299 ft 315 kts 225°
2026-04-25 03:21 42.67323 1.36744 10290 ft 338 kts 254°
2026-04-25 03:21 42.67334 1.33504 10434 ft 349 kts 289°
2026-04-25 03:21 42.75681 1.21090 12288 ft 348 kts 317°
2026-04-25 03:21 43.09693 0.92349 11533 ft 360 kts 332°
2026-04-25 03:22 43.44929 0.71796 9457 ft 334 kts 336°
2026-04-25 03:22 43.62117 0.63149 7903 ft 309 kts 340°
2026-04-25 03:22 43.64172 0.62318 6753 ft 314 kts 342°
2026-04-25 03:22 43.66296 0.61957 6173 ft 301 kts
2026-04-25 03:23 43.68214 0.62708 6024 ft 281 kts 25°
2026-04-25 03:23 43.69706 0.64252 5841 ft 266 kts 45°
2026-04-25 03:23 43.70697 0.66337 5630 ft 252 kts 65°
2026-04-25 03:23 43.71184 0.68602 5355 ft 241 kts 75°
2026-04-25 03:24 43.71560 0.70829 4720 ft 243 kts 76°
2026-04-25 03:24 43.71939 0.73113 4204 ft 240 kts 76°
2026-04-25 03:24 43.72309 0.75352 4130 ft 244 kts 76°
2026-04-25 03:24 43.72695 0.77692 4129 ft 253 kts 76°
2026-04-25 03:25 43.73089 0.80085 4123 ft 254 kts 76°
2026-04-25 03:25 43.76299 0.99697 3122 ft 251 kts 77°
2026-04-25 03:25 43.76882 1.03270 3102 ft 248 kts 76°
2026-04-25 03:25 43.78988 1.16661 3113 ft 248 kts 89°
2026-04-25 03:26 43.78663 1.18723 3106 ft 230 kts 118°
2026-04-25 03:26 43.77748 1.20372 3111 ft 203 kts 138°
2026-04-25 03:26 43.76757 1.21619 3106 ft 181 kts 142°
2026-04-25 03:26 43.75824 1.22689 3129 ft 169 kts 143°
2026-04-25 03:27 43.74887 1.23686 3047 ft 169 kts 146°
2026-04-25 03:27 43.73973 1.24625 2839 ft 161 kts 146°
2026-04-25 03:27 43.73101 1.25527 2634 ft 152 kts 146°
2026-04-25 03:27 43.72275 1.26387 2444 ft 148 kts 146°
2026-04-25 03:28 43.71449 1.27248 2254 ft 147 kts 145°
2026-04-25 03:28 43.70637 1.28096 2063 ft 146 kts 145°
2026-04-25 03:28 43.69819 1.28949 1868 ft 146 kts 145°
2026-04-25 03:28 43.69011 1.29795 1673 ft 145 kts 145°
2026-04-25 03:29 43.68219 1.30620 1482 ft 144 kts 145°
2026-04-25 03:29 43.67397 1.31479 1289 ft 147 kts 144°
2026-04-25 03:29 43.66569 1.32327 1039 ft 150 kts 144°
2026-04-25 03:29 43.65752 1.33197 840 ft 149 kts 144°
2026-04-25 03:30 43.64928 1.34054 650 ft 148 kts 144°
2026-04-25 03:30 43.64118 1.34896 516 ft 138 kts 145°
2026-04-25 03:30 43.63468 1.35577 514 ft 90 kts 142°
2026-04-25 03:30 43.63115 1.35946 514 ft 38 kts 141°
2026-04-25 03:31 43.62974 1.36093 514 ft 30 kts 143°
2026-04-25 03:31 43.62726 1.36346 514 ft 49 kts 144°
2026-04-25 03:31 43.62576 1.36402 514 ft 17 kts 215°
2026-04-25 03:31 43.62483 1.36317 514 ft 16 kts 175°
2026-04-25 03:32 43.62355 1.36420 514 ft 30 kts 144°
2026-04-25 03:32 43.62184 1.36580 514 ft 26 kts 161°
2026-04-25 03:32 43.62008 1.36600 514 ft 24 kts 180°
2026-04-25 03:32 43.61872 1.36593 514 ft 13 kts 183°
2026-04-25 03:33 43.61777 1.36596 514 ft 13 kts 178°
2026-04-25 03:33 43.61700 1.36614 514 ft 2 kts 165°
2026-04-25 03:33 43.61686 1.36610 514 ft 3 kts 210°
2026-04-25 03:33 43.61672 1.36571 514 ft 5 kts 273°
2026-04-25 03:34 43.61680 1.36517 514 ft 6 kts 278°
2026-04-25 03:34 43.61682 1.36475 514 ft 0 kts 272°
2026-04-25 03:34 43.61682 1.36462 514 ft 2 kts 272°
2026-04-25 03:34 43.61682 1.36459 514 ft 0 kts 272°